Time,TemperatureF,DewpointF,PressureIn,WindDirection,WindDirectionDegrees,WindSpeedMPH,WindSpeedGustMPH,Humidity,HourlyPrecipIn,Conditions,Clouds,dailyrainin,SoftwareType,DateUTC
2013-01-15 00:00:00,32.9,28.6,30.43,NE,56,0.0,2.0,84,0.00,,,0.00,Wunderground v.1.15,2013-01-15 08:00:00,
2013-01-15 00:01:00,32.9,28.6,30.43,NE,56,0.0,2.0,84,0.00,,,0.00,Wunderground v.1.15,2013-01-15 08:01:00,
2013-01-15 00:03:00,32.8,28.5,30.43,NE,56,0.0,2.0,84,0.00,,,0.00,Wunderground v.1.15,2013-01-15 08:03:00,
2013-01-15 00:04:00,32.8,28.5,30.43,NE,56,0.0,2.0,84,0.00,,,0.00,Wunderground v.1.15,2013-01-15 08:04:00,
2013-01-15 00:07:00,32.8,28.5,30.43,NE,56,0.0,2.0,84,0.00,,,0.00,Wunderground v.1.15,2013-01-15 08:07:00,
2013-01-15 00:08:00,32.8,28.5,30.42,NE,56,0.0,2.0,84,0.00,,,0.00,Wunderground v.1.15,2013-01-15 08:08:00,
2013-01-15 00:09:00,32.7,28.4,30.42,NE,56,0.0,2.0,84,0.00,,,0.00,Wunderground v.1.15,2013-01-15 08:09:00,
2013-01-15 00:15:00,32.5,28.2,30.42,NE,56,0.0,2.0,84,0.00,,,0.00,Wunderground v.1.15,2013-01-15 08:15:00,
2013-01-15 00:16:00,32.4,28.1,30.43,NE,56,0.0,2.0,84,0.00,,,0.00,Wunderground v.1.15,2013-01-15 08:16:00,
2013-01-15 00:17:00,32.4,28.1,30.43,NE,56,0.0,2.0,84,0.00,,,0.00,Wunderground v.1.15,2013-01-15 08:17:00,
2013-01-15 00:22:00,32.2,27.9,30.43,NE,56,0.0,2.0,84,0.00,,,0.00,Wunderground v.1.15,2013-01-15 08:22:00,
2013-01-15 00:23:00,32.2,28.2,30.43,NE,56,0.0,2.0,85,0.00,,,0.00,Wunderground v.1.15,2013-01-15 08:23:00,
2013-01-15 00:28:00,32.2,28.2,30.43,NE,56,0.0,2.0,85,0.00,,,0.00,Wunderground v.1.15,2013-01-15 08:28:00,
2013-01-15 00:29:00,32.2,28.2,30.43,NE,56,0.0,2.0,85,0.00,,,0.00,Wunderground v.1.15,2013-01-15 08:29:00,
2013-01-15 00:30:00,32.1,28.1,30.43,NE,56,0.0,2.0,85,0.00,,,0.00,Wunderground v.1.15,2013-01-15 08:30:00,
2013-01-15 00:35:00,31.9,27.9,30.43,NE,56,0.0,2.0,85,0.00,,,0.00,Wunderground v.1.15,2013-01-15 08:35:00,
2013-01-15 00:36:00,31.9,27.9,30.43,NE,56,0.0,2.0,85,0.00,,,0.00,Wunderground v.1.15,2013-01-15 08:36:00,
2013-01-15 00:40:00,31.9,28.2,30.43,NE,56,0.0,2.0,86,0.00,,,0.00,Wunderground v.1.15,2013-01-15 08:40:00,
2013-01-15 00:43:00,31.8,28.1,30.43,NE,56,0.0,4.0,86,0.00,,,0.00,Wunderground v.1.15,2013-01-15 08:43:00,
2013-01-15 00:44:00,31.8,28.4,30.43,NE,56,0.0,4.0,87,0.00,,,0.00,Wunderground v.1.15,2013-01-15 08:44:00,
2013-01-15 00:48:00,31.7,28.3,30.43,NE,56,1.0,4.0,87,0.00,,,0.00,Wunderground v.1.15,2013-01-15 08:48:00,
2013-01-15 00:49:00,31.7,28.3,30.42,NE,56,1.0,4.0,87,0.00,,,0.00,Wunderground v.1.15,2013-01-15 08:49:00,
2013-01-15 00:50:00,31.7,28.3,30.43,NE,56,1.0,1.0,87,0.00,,,0.00,Wunderground v.1.15,2013-01-15 08:50:00,
2013-01-15 00:53:00,31.8,28.7,30.43,NE,56,1.0,2.0,88,0.00,,,0.00,Wunderground v.1.15,2013-01-15 08:53:00,
2013-01-15 00:56:00,31.7,28.3,30.43,NE,56,1.0,4.0,87,0.00,,,0.00,Wunderground v.1.15,2013-01-15 08:56:00,
2013-01-15 00:57:00,31.7,28.3,30.43,NE,56,1.0,4.0,87,0.00,,,0.00,Wunderground v.1.15,2013-01-15 08:57:00,
2013-01-15 01:00:00,31.7,28.6,30.42,NE,56,2.0,3.0,88,0.00,,,0.00,Wunderground v.1.15,2013-01-15 09:00:00,
2013-01-15 01:02:00,31.9,28.8,30.42,NE,56,3.0,3.0,88,0.00,,,0.00,Wunderground v.1.15,2013-01-15 09:02:00,
2013-01-15 01:04:00,31.9,28.8,30.42,NE,56,2.0,3.0,88,0.00,,,0.00,Wunderground v.1.15,2013-01-15 09:04:00,
2013-01-15 01:05:00,31.9,28.5,30.42,NE,56,2.0,3.0,87,0.00,,,0.00,Wunderground v.1.15,2013-01-15 09:05:00,
2013-01-15 01:06:00,31.9,28.5,30.43,NE,56,2.0,3.0,87,0.00,,,0.00,Wunderground v.1.15,2013-01-15 09:06:00,
2013-01-15 01:09:00,31.8,28.4,30.43,NE,56,1.0,3.0,87,0.00,,,0.00,Wunderground v.1.15,2013-01-15 09:09:00,
2013-01-15 01:11:00,31.8,28.4,30.43,NE,56,0.0,2.0,87,0.00,,,0.00,Wunderground v.1.15,2013-01-15 09:11:00,
2013-01-15 01:13:00,31.9,28.5,30.43,NE,56,1.0,2.0,87,0.00,,,0.00,Wunderground v.1.15,2013-01-15 09:13:00,
2013-01-15 01:15:00,31.9,28.5,30.43,NE,56,1.0,2.0,87,0.00,,,0.00,Wunderground v.1.15,2013-01-15 09:15:00,
2013-01-15 01:19:00,31.7,28.3,30.43,NE,56,1.0,2.0,87,0.00,,,0.00,Wunderground v.1.15,2013-01-15 09:19:00,
2013-01-15 01:22:00,31.8,28.7,30.43,NE,56,1.0,3.0,88,0.00,,,0.00,Wunderground v.1.15,2013-01-15 09:22:00,
2013-01-15 01:25:00,32.5,29.3,30.43,NE,52,2.0,4.0,88,0.00,,,0.00,Wunderground v.1.15,2013-01-15 09:25:00,
2013-01-15 01:26:00,32.7,29.5,30.43,NE,52,2.0,4.0,88,0.00,,,0.00,Wunderground v.1.15,2013-01-15 09:26:00,
2013-01-15 01:28:00,32.8,29.4,30.43,NE,52,3.0,4.0,87,0.00,,,0.00,Wunderground v.1.15,2013-01-15 09:28:00,
2013-01-15 01:32:00,32.6,28.9,30.43,NE,52,3.0,3.0,86,0.00,,,0.00,Wunderground v.1.15,2013-01-15 09:32:00,
2013-01-15 01:35:00,32.5,28.8,30.43,NE,52,2.0,3.0,86,0.00,,,0.00,Wunderground v.1.15,2013-01-15 09:35:00,
2013-01-15 01:38:00,32.1,28.1,30.43,NE,52,1.0,3.0,85,0.00,,,0.00,Wunderground v.1.15,2013-01-15 09:38:00,
2013-01-15 01:40:00,32.0,28.0,30.43,NE,52,1.0,1.0,85,0.00,,,0.00,Wunderground v.1.15,2013-01-15 09:40:00,
2013-01-15 01:44:00,31.6,27.6,30.44,NE,52,0.0,2.0,85,0.00,,,0.00,Wunderground v.1.15,2013-01-15 09:44:00,
2013-01-15 01:47:00,31.5,27.8,30.44,NE,52,0.0,2.0,86,0.00,,,0.00,Wunderground v.1.15,2013-01-15 09:47:00,
2013-01-15 01:49:00,31.4,27.7,30.44,NE,52,0.0,2.0,86,0.00,,,0.00,Wunderground v.1.15,2013-01-15 09:49:00,
2013-01-15 01:51:00,31.3,27.6,30.44,NE,52,0.0,2.0,86,0.00,,,0.00,Wunderground v.1.15,2013-01-15 09:51:00,
2013-01-15 01:54:00,31.2,27.8,30.44,NE,52,0.0,2.0,87,0.00,,,0.00,Wunderground v.1.15,2013-01-15 09:54:00,
2013-01-15 01:55:00,31.2,27.8,30.44,NE,52,0.0,2.0,87,0.00,,,0.00,Wunderground v.1.15,2013-01-15 09:55:00,
2013-01-15 01:56:00,31.2,27.8,30.44,NE,52,0.0,2.0,87,0.00,,,0.00,Wunderground v.1.15,2013-01-15 09:56:00,
2013-01-15 02:02:00,31.0,27.6,30.44,NE,52,0.0,2.0,87,0.00,,,0.00,Wunderground v.1.15,2013-01-15 10:02:00,
2013-01-15 02:05:00,30.8,27.4,30.44,NE,52,0.0,2.0,87,0.00,,,0.00,Wunderground v.1.15,2013-01-15 10:05:00,
2013-01-15 02:06:00,30.8,27.4,30.44,NE,52,0.0,2.0,87,0.00,,,0.00,Wunderground v.1.15,2013-01-15 10:06:00,
2013-01-15 02:07:00,30.8,27.4,30.44,NE,52,0.0,2.0,87,0.00,,,0.00,Wunderground v.1.15,2013-01-15 10:07:00,
2013-01-15 02:11:00,30.8,27.7,30.44,NE,52,0.0,2.0,88,0.00,,,0.00,Wunderground v.1.15,2013-01-15 10:11:00,
2013-01-15 02:13:00,30.8,27.7,30.44,NE,52,0.0,2.0,88,0.00,,,0.00,Wunderground v.1.15,2013-01-15 10:13:00,
2013-01-15 02:14:00,30.8,27.7,30.44,NE,52,0.0,2.0,88,0.00,,,0.00,Wunderground v.1.15,2013-01-15 10:14:00,
2013-01-15 02:18:00,30.9,27.8,30.45,NE,52,0.0,2.0,88,0.00,,,0.00,Wunderground v.1.15,2013-01-15 10:18:00,
2013-01-15 02:20:00,30.9,27.8,30.45,NE,52,0.0,2.0,88,0.00,,,0.00,Wunderground v.1.15,2013-01-15 10:20:00,
2013-01-15 02:23:00,30.9,27.8,30.45,NE,52,0.0,2.0,88,0.00,,,0.00,Wunderground v.1.15,2013-01-15 10:23:00,
2013-01-15 02:24:00,30.9,27.8,30.45,NE,52,0.0,2.0,88,0.00,,,0.00,Wunderground v.1.15,2013-01-15 10:24:00,
2013-01-15 02:26:00,30.9,28.0,30.45,NE,52,0.0,2.0,89,0.00,,,0.00,Wunderground v.1.15,2013-01-15 10:26:00,
2013-01-15 02:28:00,31.0,28.1,30.45,NE,52,0.0,2.0,89,0.00,,,0.00,Wunderground v.1.15,2013-01-15 10:28:00,
2013-01-15 02:33:00,31.2,28.3,30.45,NE,52,0.0,2.0,89,0.00,,,0.00,Wunderground v.1.15,2013-01-15 10:33:00,
2013-01-15 02:34:00,31.2,28.3,30.45,NE,52,0.0,2.0,89,0.00,,,0.00,Wunderground v.1.15,2013-01-15 10:34:00,
2013-01-15 02:35:00,31.2,28.3,30.45,NE,52,0.0,2.0,89,0.00,,,0.00,Wunderground v.1.15,2013-01-15 10:35:00,
2013-01-15 02:40:00,31.1,28.0,30.45,NE,52,0.0,2.0,88,0.00,,,0.00,Wunderground v.1.15,2013-01-15 10:40:00,
2013-01-15 02:42:00,31.0,27.9,30.45,NE,52,0.0,2.0,88,0.00,,,0.00,Wunderground v.1.15,2013-01-15 10:42:00,
2013-01-15 02:43:00,31.0,27.9,30.45,NE,52,0.0,2.0,88,0.00,,,0.00,Wunderground v.1.15,2013-01-15 10:43:00,
2013-01-15 02:44:00,31.0,27.9,30.45,NE,52,0.0,2.0,88,0.00,,,0.00,Wunderground v.1.15,2013-01-15 10:44:00,
2013-01-15 02:47:00,30.9,27.8,30.45,NE,52,0.0,2.0,88,0.00,,,0.00,Wunderground v.1.15,2013-01-15 10:47:00,
2013-01-15 02:48:00,30.9,27.8,30.45,NE,52,0.0,2.0,88,0.00,,,0.00,Wunderground v.1.15,2013-01-15 10:48:00,
2013-01-15 02:50:00,30.9,27.8,30.45,NE,52,0.0,2.0,88,0.00,,,0.00,Wunderground v.1.15,2013-01-15 10:50:00,
2013-01-15 02:53:00,30.8,27.7,30.45,NE,52,0.0,2.0,88,0.00,,,0.00,Wunderground v.1.15,2013-01-15 10:53:00,
2013-01-15 02:54:00,30.7,27.6,30.45,NE,52,0.0,2.0,88,0.00,,,0.00,Wunderground v.1.15,2013-01-15 10:54:00,
2013-01-15 02:56:00,30.6,27.2,30.45,NE,52,0.0,2.0,87,0.00,,,0.00,Wunderground v.1.15,2013-01-15 10:56:00,
2013-01-15 02:59:00,30.4,27.3,30.45,NE,52,0.0,2.0,88,0.00,,,0.00,Wunderground v.1.15,2013-01-15 10:59:00,
2013-01-15 03:01:00,30.4,27.3,30.45,NE,52,0.0,2.0,88,0.00,,,0.00,Wunderground v.1.15,2013-01-15 11:01:00,
2013-01-15 03:02:00,30.3,27.2,30.45,NE,52,0.0,2.0,88,0.00,,,0.00,Wunderground v.1.15,2013-01-15 11:02:00,
2013-01-15 03:03:00,30.3,27.2,30.45,NE,52,1.0,2.0,88,0.00,,,0.00,Wunderground v.1.15,2013-01-15 11:03:00,
2013-01-15 03:05:00,30.2,27.1,30.45,NE,52,0.0,2.0,88,0.00,,,0.00,Wunderground v.1.15,2013-01-15 11:05:00,
2013-01-15 03:07:00,30.1,27.0,30.45,NE,52,0.0,2.0,88,0.00,,,0.00,Wunderground v.1.15,2013-01-15 11:07:00,
2013-01-15 03:09:00,30.0,26.9,30.45,NE,52,0.0,2.0,88,0.00,,,0.00,Wunderground v.1.15,2013-01-15 11:09:00,
2013-01-15 03:12:00,29.9,27.1,30.45,NE,52,0.0,2.0,89,0.00,,,0.00,Wunderground v.1.15,2013-01-15 11:12:00,
2013-01-15 03:13:00,29.9,27.1,30.45,NE,52,0.0,2.0,89,0.00,,,0.00,Wunderground v.1.15,2013-01-15 11:13:00,
2013-01-15 03:14:00,29.9,27.1,30.45,NE,52,0.0,2.0,89,0.00,,,0.00,Wunderground v.1.15,2013-01-15 11:14:00,
2013-01-15 03:19:00,29.8,27.0,30.45,NE,52,0.0,2.0,89,0.00,,,0.00,Wunderground v.1.15,2013-01-15 11:19:00,
2013-01-15 03:20:00,29.8,27.0,30.45,NE,52,0.0,2.0,89,0.00,,,0.00,Wunderground v.1.15,2013-01-15 11:20:00,
2013-01-15 03:23:00,29.8,27.0,30.45,NE,52,0.0,2.0,89,0.00,,,0.00,Wunderground v.1.15,2013-01-15 11:23:00,
2013-01-15 03:26:00,29.8,27.0,30.45,NE,52,0.0,2.0,89,0.00,,,0.00,Wunderground v.1.15,2013-01-15 11:26:00,
2013-01-15 03:29:00,29.9,27.3,30.45,NE,52,0.0,2.0,90,0.00,,,0.00,Wunderground v.1.15,2013-01-15 11:29:00,
2013-01-15 03:33:00,30.0,27.4,30.45,NE,52,0.0,2.0,90,0.00,,,0.00,Wunderground v.1.15,2013-01-15 11:33:00,
2013-01-15 03:35:00,30.1,27.5,30.45,NE,52,0.0,2.0,90,0.00,,,0.00,Wunderground v.1.15,2013-01-15 11:35:00,
2013-01-15 03:38:00,30.2,27.6,30.45,NE,52,0.0,2.0,90,0.00,,,0.00,Wunderground v.1.15,2013-01-15 11:38:00,
2013-01-15 03:40:00,30.2,27.6,30.45,NE,52,0.0,2.0,90,0.00,,,0.00,Wunderground v.1.15,2013-01-15 11:40:00,
2013-01-15 03:41:00,30.3,27.7,30.45,NE,52,0.0,2.0,90,0.00,,,0.00,Wunderground v.1.15,2013-01-15 11:41:00,
2013-01-15 03:43:00,30.2,27.3,30.45,NE,52,0.0,2.0,89,0.00,,,0.00,Wunderground v.1.15,2013-01-15 11:43:00,
2013-01-15 03:48:00,30.1,27.3,30.45,NE,52,0.0,2.0,89,0.00,,,0.00,Wunderground v.1.15,2013-01-15 11:48:00,
2013-01-15 03:49:00,30.0,27.2,30.45,NE,52,0.0,2.0,89,0.00,,,0.00,Wunderground v.1.15,2013-01-15 11:49:00,
2013-01-15 03:51:00,30.0,27.2,30.45,NE,52,0.0,2.0,89,0.00,,,0.00,Wunderground v.1.15,2013-01-15 11:51:00,
2013-01-15 03:56:00,29.9,27.1,30.45,NE,52,0.0,2.0,89,0.00,,,0.00,Wunderground v.1.15,2013-01-15 11:56:00,
2013-01-15 03:57:00,29.8,27.0,30.45,NE,52,0.0,2.0,89,0.00,,,0.00,Wunderground v.1.15,2013-01-15 11:57:00,
2013-01-15 03:58:00,29.9,27.1,30.45,NE,52,0.0,2.0,89,0.00,,,0.00,Wunderground v.1.15,2013-01-15 11:58:00,
2013-01-15 04:01:00,30.0,27.4,30.45,NE,52,0.0,2.0,90,0.00,,,0.00,Wunderground v.1.15,2013-01-15 12:01:00,
2013-01-15 04:04:00,30.1,27.5,30.45,NE,52,0.0,2.0,90,0.00,,,0.00,Wunderground v.1.15,2013-01-15 12:04:00,
2013-01-15 04:06:00,30.1,27.5,30.45,NE,52,0.0,2.0,90,0.00,,,0.00,Wunderground v.1.15,2013-01-15 12:06:00,
2013-01-15 04:09:00,30.0,27.4,30.46,NE,52,0.0,2.0,90,0.00,,,0.00,Wunderground v.1.15,2013-01-15 12:09:00,
2013-01-15 04:10:00,30.0,27.4,30.45,NE,52,0.0,3.0,90,0.00,,,0.00,Wunderground v.1.15,2013-01-15 12:10:00,
2013-01-15 04:13:00,29.9,27.3,30.45,NE,52,1.0,3.0,90,0.00,,,0.00,Wunderground v.1.15,2013-01-15 12:13:00,
2013-01-15 04:15:00,29.7,27.1,30.45,NE,52,1.0,3.0,90,0.00,,,0.00,Wunderground v.1.15,2013-01-15 12:15:00,
2013-01-15 04:18:00,29.6,27.0,30.45,NE,52,1.0,3.0,90,0.00,,,0.00,Wunderground v.1.15,2013-01-15 12:18:00,
2013-01-15 04:19:00,29.5,26.9,30.45,NE,52,1.0,3.0,90,0.00,,,0.00,Wunderground v.1.15,2013-01-15 12:19:00,
2013-01-15 04:20:00,29.5,26.9,30.45,NE,52,1.0,1.0,90,0.00,,,0.00,Wunderground v.1.15,2013-01-15 12:20:00,
2013-01-15 04:24:00,29.5,26.9,30.45,NE,52,0.0,2.0,90,0.00,,,0.00,Wunderground v.1.15,2013-01-15 12:24:00,
2013-01-15 04:25:00,29.4,26.8,30.46,NE,52,0.0,2.0,90,0.00,,,0.00,Wunderground v.1.15,2013-01-15 12:25:00,
2013-01-15 04:29:00,29.4,26.8,30.45,NE,52,0.0,2.0,90,0.00,,,0.00,Wunderground v.1.15,2013-01-15 12:29:00,
2013-01-15 04:34:00,29.6,27.3,30.45,NE,52,0.0,2.0,91,0.00,,,0.00,Wunderground v.1.15,2013-01-15 12:34:00,
2013-01-15 04:37:00,29.6,27.3,30.45,NE,52,0.0,2.0,91,0.00,,,0.00,Wunderground v.1.15,2013-01-15 12:37:00,
2013-01-15 04:40:00,29.7,27.4,30.45,NE,52,0.0,2.0,91,0.00,,,0.00,Wunderground v.1.15,2013-01-15 12:40:00,
2013-01-15 04:43:00,29.7,27.4,30.45,NE,52,0.0,2.0,91,0.00,,,0.00,Wunderground v.1.15,2013-01-15 12:43:00,
2013-01-15 04:47:00,29.6,27.0,30.45,NE,52,0.0,2.0,90,0.00,,,0.00,Wunderground v.1.15,2013-01-15 12:47:00,
2013-01-15 04:48:00,29.6,27.0,30.45,NE,52,0.0,2.0,90,0.00,,,0.00,Wunderground v.1.15,2013-01-15 12:48:00,
2013-01-15 04:52:00,29.7,27.1,30.45,NE,52,0.0,2.0,90,0.00,,,0.00,Wunderground v.1.15,2013-01-15 12:52:00,
2013-01-15 04:53:00,29.7,27.1,30.45,NE,52,1.0,2.0,90,0.00,,,0.00,Wunderground v.1.15,2013-01-15 12:53:00,
2013-01-15 04:58:00,29.6,27.3,30.45,NE,52,1.0,3.0,91,0.00,,,0.00,Wunderground v.1.15,2013-01-15 12:58:00,
2013-01-15 04:59:00,29.6,27.3,30.45,NE,52,2.0,3.0,91,0.00,,,0.00,Wunderground v.1.15,2013-01-15 12:59:00,
2013-01-15 05:01:00,29.6,27.3,30.45,NE,52,2.0,2.0,91,0.00,,,0.00,Wunderground v.1.15,2013-01-15 13:01:00,
2013-01-15 05:04:00,29.6,27.3,30.45,NE,52,1.0,2.0,91,0.00,,,0.00,Wunderground v.1.15,2013-01-15 13:04:00,
2013-01-15 05:05:00,29.6,27.3,30.45,NE,52,1.0,2.0,91,0.00,,,0.00,Wunderground v.1.15,2013-01-15 13:05:00,
2013-01-15 05:07:00,29.6,27.3,30.45,NE,52,1.0,2.0,91,0.00,,,0.00,Wunderground v.1.15,2013-01-15 13:07:00,
2013-01-15 05:08:00,29.6,27.3,30.45,NE,52,1.0,2.0,91,0.00,,,0.00,Wunderground v.1.15,2013-01-15 13:08:00,
2013-01-15 05:11:00,29.6,27.3,30.45,NE,52,0.0,2.0,91,0.00,,,0.00,Wunderground v.1.15,2013-01-15 13:11:00,
2013-01-15 05:12:00,29.6,27.3,30.45,NE,52,0.0,2.0,91,0.00,,,0.00,Wunderground v.1.15,2013-01-15 13:12:00,
2013-01-15 05:13:00,29.6,27.3,30.45,NE,52,0.0,2.0,91,0.00,,,0.00,Wunderground v.1.15,2013-01-15 13:13:00,
2013-01-15 05:16:00,29.6,27.3,30.45,NE,52,0.0,2.0,91,0.00,,,0.00,Wunderground v.1.15,2013-01-15 13:16:00,
2013-01-15 05:19:00,29.6,27.3,30.45,NE,52,0.0,2.0,91,0.00,,,0.00,Wunderground v.1.15,2013-01-15 13:19:00,
2013-01-15 05:21:00,29.4,27.1,30.45,NE,52,0.0,2.0,91,0.00,,,0.00,Wunderground v.1.15,2013-01-15 13:21:00,
2013-01-15 05:23:00,29.4,26.8,30.45,NE,52,0.0,2.0,90,0.00,,,0.00,Wunderground v.1.15,2013-01-15 13:23:00,
2013-01-15 05:25:00,29.3,27.0,30.45,NE,52,0.0,2.0,91,0.00,,,0.00,Wunderground v.1.15,2013-01-15 13:25:00,
2013-01-15 05:27:00,29.3,27.0,30.45,NE,52,0.0,2.0,91,0.00,,,0.00,Wunderground v.1.15,2013-01-15 13:27:00,
2013-01-15 05:28:00,29.3,27.0,30.45,NE,52,0.0,2.0,91,0.00,,,0.00,Wunderground v.1.15,2013-01-15 13:28:00,
2013-01-15 05:29:00,29.3,26.7,30.46,NE,52,0.0,2.0,90,0.00,,,0.00,Wunderground v.1.15,2013-01-15 13:29:00,
2013-01-15 05:34:00,29.2,26.9,30.46,NE,52,0.0,2.0,91,0.00,,,0.00,Wunderground v.1.15,2013-01-15 13:34:00,
2013-01-15 05:36:00,29.3,27.0,30.46,NE,51,0.0,2.0,91,0.00,,,0.00,Wunderground v.1.15,2013-01-15 13:36:00,
2013-01-15 05:39:00,29.4,27.1,30.46,NE,52,0.0,2.0,91,0.00,,,0.00,Wunderground v.1.15,2013-01-15 13:39:00,
2013-01-15 05:40:00,29.5,27.5,30.46,NE,52,0.0,2.0,92,0.00,,,0.00,Wunderground v.1.15,2013-01-15 13:40:00,
2013-01-15 05:41:00,29.5,27.5,30.46,NE,52,0.0,2.0,92,0.00,,,0.00,Wunderground v.1.15,2013-01-15 13:41:00,
2013-01-15 05:46:00,29.7,27.7,30.46,NE,52,0.0,2.0,92,0.00,,,0.00,Wunderground v.1.15,2013-01-15 13:46:00,
2013-01-15 05:47:00,29.7,27.7,30.46,NE,52,0.0,2.0,92,0.00,,,0.00,Wunderground v.1.15,2013-01-15 13:47:00,
2013-01-15 05:48:00,29.8,27.8,30.46,NE,52,0.0,2.0,92,0.00,,,0.00,Wunderground v.1.15,2013-01-15 13:48:00,
2013-01-15 05:52:00,29.7,27.4,30.46,NE,52,0.0,2.0,91,0.00,,,0.00,Wunderground v.1.15,2013-01-15 13:52:00,
2013-01-15 05:53:00,29.7,27.4,30.46,NE,51,0.0,2.0,91,0.00,,,0.00,Wunderground v.1.15,2013-01-15 13:53:00,
2013-01-15 05:58:00,29.5,27.2,30.46,NE,52,0.0,2.0,91,0.00,,,0.00,Wunderground v.1.15,2013-01-15 13:58:00,
2013-01-15 05:59:00,29.4,27.1,30.46,NE,52,0.0,2.0,91,0.00,,,0.00,Wunderground v.1.15,2013-01-15 13:59:00,
2013-01-15 06:00:00,29.4,26.8,30.46,NE,52,0.0,2.0,90,0.00,,,0.00,Wunderground v.1.15,2013-01-15 14:00:00,
2013-01-15 06:03:00,29.2,26.6,30.46,NE,52,0.0,2.0,90,0.00,,,0.00,Wunderground v.1.15,2013-01-15 14:03:00,
2013-01-15 06:07:00,29.1,26.8,30.46,NE,52,0.0,2.0,91,0.00,,,0.00,Wunderground v.1.15,2013-01-15 14:07:00,
2013-01-15 06:08:00,29.0,26.7,30.46,NE,52,0.0,2.0,91,0.00,,,0.00,Wunderground v.1.15,2013-01-15 14:08:00,
2013-01-15 06:11:00,29.0,26.7,30.47,NE,52,0.0,2.0,91,0.00,,,0.00,Wunderground v.1.15,2013-01-15 14:11:00,
2013-01-15 06:12:00,29.1,26.8,30.47,NE,52,0.0,2.0,91,0.00,,,0.00,Wunderground v.1.15,2013-01-15 14:12:00,
2013-01-15 06:14:00,29.1,26.8,30.47,NE,52,0.0,2.0,91,0.00,,,0.00,Wunderground v.1.15,2013-01-15 14:14:00,
2013-01-15 06:18:00,29.1,26.8,30.47,NE,52,0.0,2.0,91,0.00,,,0.00,Wunderground v.1.15,2013-01-15 14:18:00,
2013-01-15 06:20:00,29.2,26.9,30.47,NE,52,0.0,2.0,91,0.00,,,0.00,Wunderground v.1.15,2013-01-15 14:20:00,
2013-01-15 06:22:00,29.2,26.9,30.47,NE,52,0.0,2.0,91,0.00,,,0.00,Wunderground v.1.15,2013-01-15 14:22:00,
2013-01-15 06:25:00,29.3,27.0,30.47,NE,52,0.0,2.0,91,0.00,,,0.00,Wunderground v.1.15,2013-01-15 14:25:00,
2013-01-15 06:27:00,29.4,27.1,30.47,NE,52,0.0,2.0,91,0.00,,,0.00,Wunderground v.1.15,2013-01-15 14:27:00,
2013-01-15 06:28:00,29.4,27.1,30.47,NE,52,0.0,2.0,91,0.00,,,0.00,Wunderground v.1.15,2013-01-15 14:28:00,
2013-01-15 06:31:00,29.4,27.4,30.47,NE,52,0.0,2.0,92,0.00,,,0.00,Wunderground v.1.15,2013-01-15 14:31:00,
2013-01-15 06:32:00,29.5,27.5,30.47,NE,52,0.0,2.0,92,0.00,,,0.00,Wunderground v.1.15,2013-01-15 14:32:00,
2013-01-15 06:35:00,29.5,27.5,30.47,NE,52,0.0,2.0,92,0.00,,,0.00,Wunderground v.1.15,2013-01-15 14:35:00,
2013-01-15 06:36:00,29.5,27.2,30.47,NE,51,0.0,2.0,91,0.00,,,0.00,Wunderground v.1.15,2013-01-15 14:36:00,
2013-01-15 06:39:00,29.5,27.2,30.47,NE,52,0.0,2.0,91,0.00,,,0.00,Wunderground v.1.15,2013-01-15 14:39:00,
2013-01-15 06:40:00,29.5,27.2,30.47,NE,52,0.0,2.0,91,0.00,,,0.00,Wunderground v.1.15,2013-01-15 14:40:00,
2013-01-15 06:42:00,29.4,27.1,30.47,NE,52,0.0,2.0,91,0.00,,,0.00,Wunderground v.1.15,2013-01-15 14:42:00,
2013-01-15 06:44:00,29.3,27.0,30.47,NE,52,0.0,2.0,91,0.00,,,0.00,Wunderground v.1.15,2013-01-15 14:44:00,
2013-01-15 06:47:00,29.1,26.5,30.48,NE,52,0.0,2.0,90,0.00,,,0.00,Wunderground v.1.15,2013-01-15 14:47:00,
2013-01-15 06:50:00,29.0,26.7,30.48,NE,52,0.0,2.0,91,0.00,,,0.00,Wunderground v.1.15,2013-01-15 14:50:00,
2013-01-15 06:51:00,28.9,26.6,30.48,NE,52,0.0,2.0,91,0.00,,,0.00,Wunderground v.1.15,2013-01-15 14:51:00,
2013-01-15 06:53:00,28.9,26.6,30.48,NE,52,0.0,2.0,91,0.00,,,0.00,Wunderground v.1.15,2013-01-15 14:53:00,
2013-01-15 06:57:00,28.7,26.4,30.48,NE,52,0.0,2.0,91,0.00,,,0.00,Wunderground v.1.15,2013-01-15 14:57:00,
2013-01-15 06:59:00,28.6,26.3,30.48,NE,52,0.0,2.0,91,0.00,,,0.00,Wunderground v.1.15,2013-01-15 14:59:00,
2013-01-15 07:01:00,28.6,26.3,30.48,NE,52,0.0,2.0,91,0.00,,,0.00,Wunderground v.1.15,2013-01-15 15:01:00,
2013-01-15 07:04:00,28.5,26.2,30.48,NE,52,0.0,2.0,91,0.00,,,0.00,Wunderground v.1.15,2013-01-15 15:04:00,
2013-01-15 07:05:00,28.4,26.1,30.48,NE,52,0.0,2.0,91,0.00,,,0.00,Wunderground v.1.15,2013-01-15 15:05:00,
2013-01-15 07:07:00,28.4,26.1,30.48,NE,52,0.0,2.0,91,0.00,,,0.00,Wunderground v.1.15,2013-01-15 15:07:00,
2013-01-15 07:10:00,28.3,26.0,30.48,NE,52,0.0,2.0,91,0.00,,,0.00,Wunderground v.1.15,2013-01-15 15:10:00,
2013-01-15 07:11:00,28.3,26.0,30.48,NE,52,0.0,2.0,91,0.00,,,0.00,Wunderground v.1.15,2013-01-15 15:11:00,
2013-01-15 07:13:00,28.3,26.0,30.48,NE,52,0.0,2.0,91,0.00,,,0.00,Wunderground v.1.15,2013-01-15 15:13:00,
2013-01-15 07:15:00,28.3,26.0,30.49,NE,52,0.0,2.0,91,0.00,,,0.00,Wunderground v.1.15,2013-01-15 15:15:00,
2013-01-15 07:17:00,28.3,26.0,30.49,NE,52,0.0,2.0,91,0.00,,,0.00,Wunderground v.1.15,2013-01-15 15:17:00,
2013-01-15 07:20:00,28.3,26.3,30.49,NE,52,0.0,2.0,92,0.00,,,0.00,Wunderground v.1.15,2013-01-15 15:20:00,
2013-01-15 07:23:00,28.4,26.4,30.49,NE,52,0.0,2.0,92,0.00,,,0.00,Wunderground v.1.15,2013-01-15 15:23:00,
2013-01-15 07:25:00,28.5,26.5,30.49,NE,52,0.0,2.0,92,0.00,,,0.00,Wunderground v.1.15,2013-01-15 15:25:00,
2013-01-15 07:28:00,28.5,26.5,30.49,NE,52,0.0,2.0,92,0.00,,,0.00,Wunderground v.1.15,2013-01-15 15:28:00,
2013-01-15 07:30:00,28.6,26.6,30.49,NE,52,0.0,2.0,92,0.00,,,0.00,Wunderground v.1.15,2013-01-15 15:30:00,
2013-01-15 07:31:00,28.7,26.7,30.49,NE,52,0.0,2.0,92,0.00,,,0.00,Wunderground v.1.15,2013-01-15 15:31:00,
2013-01-15 07:33:00,28.8,26.8,30.49,NE,52,0.0,2.0,92,0.00,,,0.00,Wunderground v.1.15,2013-01-15 15:33:00,
2013-01-15 07:37:00,28.9,26.9,30.49,NE,52,0.0,2.0,92,0.00,,,0.00,Wunderground v.1.15,2013-01-15 15:37:00,
2013-01-15 07:38:00,28.9,26.9,30.49,NE,52,0.0,2.0,92,0.00,,,0.00,Wunderground v.1.15,2013-01-15 15:38:00,
2013-01-15 07:40:00,28.9,26.9,30.49,NE,52,0.0,2.0,92,0.00,,,0.00,Wunderground v.1.15,2013-01-15 15:40:00,
2013-01-15 07:42:00,28.9,26.9,30.49,NE,51,0.0,2.0,92,0.00,,,0.00,Wunderground v.1.15,2013-01-15 15:42:00,
2013-01-15 07:43:00,28.9,26.9,30.49,NE,52,0.0,2.0,92,0.00,,,0.00,Wunderground v.1.15,2013-01-15 15:43:00,
2013-01-15 07:47:00,28.9,26.9,30.50,NE,52,0.0,2.0,92,0.00,,,0.00,Wunderground v.1.15,2013-01-15 15:47:00,
2013-01-15 07:48:00,28.8,26.8,30.50,NE,52,0.0,2.0,92,0.00,,,0.00,Wunderground v.1.15,2013-01-15 15:48:00,
2013-01-15 07:50:00,28.9,26.9,30.50,NE,52,0.0,2.0,92,0.00,,,0.00,Wunderground v.1.15,2013-01-15 15:50:00,
2013-01-15 07:53:00,28.9,26.9,30.50,NE,52,0.0,2.0,92,0.00,,,0.00,Wunderground v.1.15,2013-01-15 15:53:00,
2013-01-15 07:55:00,28.9,26.9,30.50,NE,52,0.0,2.0,92,0.00,,,0.00,Wunderground v.1.15,2013-01-15 15:55:00,
2013-01-15 07:58:00,29.0,27.0,30.50,NE,52,0.0,2.0,92,0.00,,,0.00,Wunderground v.1.15,2013-01-15 15:58:00,
2013-01-15 08:01:00,29.0,27.0,30.50,NE,52,0.0,2.0,92,0.00,,,0.00,Wunderground v.1.15,2013-01-15 16:01:00,
2013-01-15 08:04:00,29.1,27.1,30.50,NE,52,0.0,2.0,92,0.00,,,0.00,Wunderground v.1.15,2013-01-15 16:04:00,
2013-01-15 08:07:00,29.2,27.2,30.50,NE,52,0.0,2.0,92,0.00,,,0.00,Wunderground v.1.15,2013-01-15 16:07:00,
2013-01-15 08:08:00,29.2,27.2,30.50,NE,52,0.0,2.0,92,0.00,,,0.00,Wunderground v.1.15,2013-01-15 16:08:00,
2013-01-15 08:09:00,29.3,27.3,30.50,NE,52,0.0,2.0,92,0.00,,,0.00,Wunderground v.1.15,2013-01-15 16:09:00,
2013-01-15 08:12:00,29.4,27.4,30.50,NE,52,0.0,2.0,92,0.00,,,0.00,Wunderground v.1.15,2013-01-15 16:12:00,
2013-01-15 08:13:00,29.6,27.6,30.50,NE,52,0.0,2.0,92,0.00,,,0.00,Wunderground v.1.15,2013-01-15 16:13:00,
2013-01-15 08:15:00,29.7,27.7,30.50,NE,52,0.0,2.0,92,0.00,,,0.00,Wunderground v.1.15,2013-01-15 16:15:00,
2013-01-15 08:16:00,29.7,27.7,30.50,NE,52,0.0,2.0,92,0.00,,,0.00,Wunderground v.1.15,2013-01-15 16:16:00,
2013-01-15 08:19:00,30.0,28.0,30.50,NE,52,0.0,2.0,92,0.00,,,0.00,Wunderground v.1.15,2013-01-15 16:19:00,
2013-01-15 08:22:00,30.3,28.5,30.50,NE,52,0.0,2.0,93,0.00,,,0.00,Wunderground v.1.15,2013-01-15 16:22:00,
2013-01-15 08:25:00,30.6,28.8,30.50,NE,52,0.0,2.0,93,0.00,,,0.00,Wunderground v.1.15,2013-01-15 16:25:00,
2013-01-15 08:27:00,30.8,28.8,30.50,NE,52,0.0,2.0,92,0.00,,,0.00,Wunderground v.1.15,2013-01-15 16:27:00,
2013-01-15 08:31:00,31.2,29.1,30.51,NE,52,0.0,2.0,92,0.00,,,0.00,Wunderground v.1.15,2013-01-15 16:31:00,
2013-01-15 08:33:00,31.3,29.2,30.51,NE,52,0.0,2.0,92,0.00,,,0.00,Wunderground v.1.15,2013-01-15 16:33:00,
2013-01-15 08:37:00,31.7,29.6,30.51,NE,52,0.0,2.0,92,0.00,,,0.00,Wunderground v.1.15,2013-01-15 16:37:00,
2013-01-15 08:38:00,31.8,29.7,30.51,NE,52,0.0,2.0,92,0.00,,,0.00,Wunderground v.1.15,2013-01-15 16:38:00,
2013-01-15 08:39:00,31.9,29.8,30.51,NE,52,0.0,2.0,92,0.00,,,0.00,Wunderground v.1.15,2013-01-15 16:39:00,
2013-01-15 08:43:00,32.3,30.0,30.51,NE,52,0.0,2.0,91,0.00,,,0.00,Wunderground v.1.15,2013-01-15 16:43:00,
2013-01-15 08:45:00,32.4,30.1,30.51,NE,52,0.0,2.0,91,0.00,,,0.00,Wunderground v.1.15,2013-01-15 16:45:00,
2013-01-15 08:46:00,32.5,30.2,30.51,NE,52,0.0,2.0,91,0.00,,,0.00,Wunderground v.1.15,2013-01-15 16:46:00,
2013-01-15 08:50:00,32.9,30.3,30.51,NE,52,0.0,2.0,90,0.00,,,0.00,Wunderground v.1.15,2013-01-15 16:50:00,
2013-01-15 08:55:00,33.4,30.8,30.50,NE,52,0.0,2.0,90,0.00,,,0.00,Wunderground v.1.15,2013-01-15 16:55:00,
2013-01-15 08:56:00,33.5,30.9,30.51,NE,52,0.0,2.0,90,0.00,,,0.00,Wunderground v.1.15,2013-01-15 16:56:00,
2013-01-15 08:57:00,33.6,31.0,30.51,NE,52,0.0,2.0,90,0.00,,,0.00,Wunderground v.1.15,2013-01-15 16:57:00,
2013-01-15 08:59:00,33.8,30.9,30.50,NE,52,0.0,2.0,89,0.00,,,0.00,Wunderground v.1.15,2013-01-15 16:59:00,
2013-01-15 09:02:00,34.1,31.2,30.50,NE,52,0.0,2.0,89,0.00,,,0.00,Wunderground v.1.15,2013-01-15 17:02:00,
2013-01-15 09:03:00,34.3,31.4,30.51,NE,52,0.0,2.0,89,0.00,,,0.00,Wunderground v.1.15,2013-01-15 17:03:00,
2013-01-15 09:08:00,34.9,32.0,30.51,NE,52,0.0,2.0,89,0.00,,,0.00,Wunderground v.1.15,2013-01-15 17:08:00,
2013-01-15 09:09:00,35.0,32.1,30.51,NE,52,0.0,2.0,89,0.00,,,0.00,Wunderground v.1.15,2013-01-15 17:09:00,
2013-01-15 09:10:00,35.2,32.3,30.51,NE,52,0.0,2.0,89,0.00,,,0.00,Wunderground v.1.15,2013-01-15 17:10:00,
2013-01-15 09:12:00,35.5,32.3,30.51,NE,52,0.0,2.0,88,0.00,,,0.00,Wunderground v.1.15,2013-01-15 17:12:00,
2013-01-15 09:15:00,35.9,32.7,30.51,NE,52,0.0,2.0,88,0.00,,,0.00,Wunderground v.1.15,2013-01-15 17:15:00,
2013-01-15 09:16:00,36.1,32.9,30.51,NE,52,0.0,2.0,88,0.00,,,0.00,Wunderground v.1.15,2013-01-15 17:16:00,
2013-01-15 09:19:00,36.6,33.1,30.51,NE,52,0.0,2.0,87,0.00,,,0.00,Wunderground v.1.15,2013-01-15 17:19:00,
2013-01-15 09:22:00,37.2,33.4,30.51,NE,52,0.0,2.0,86,0.00,,,0.00,Wunderground v.1.15,2013-01-15 17:22:00,
2013-01-15 09:25:00,37.9,33.8,30.51,NE,52,0.0,2.0,85,0.00,,,0.00,Wunderground v.1.15,2013-01-15 17:25:00,
2013-01-15 09:28:00,38.5,34.1,30.52,NE,52,0.0,2.0,84,0.00,,,0.00,Wunderground v.1.15,2013-01-15 17:28:00,
2013-01-15 09:31:00,39.0,34.3,30.51,NE,52,0.0,2.0,83,0.00,,,0.00,Wunderground v.1.15,2013-01-15 17:31:00,
2013-01-15 09:32:00,39.1,34.1,30.52,NE,52,0.0,2.0,82,0.00,,,0.00,Wunderground v.1.15,2013-01-15 17:32:00,
2013-01-15 09:34:00,39.4,34.4,30.51,NE,52,0.0,2.0,82,0.00,,,0.00,Wunderground v.1.15,2013-01-15 17:34:00,
2013-01-15 09:40:00,39.9,34.5,30.51,NE,52,0.0,2.0,81,0.00,,,0.00,Wunderground v.1.15,2013-01-15 17:40:00,
2013-01-15 09:41:00,40.0,34.3,30.51,NE,52,0.0,2.0,80,0.00,,,0.00,Wunderground v.1.15,2013-01-15 17:41:00,
2013-01-15 09:42:00,40.1,34.4,30.51,NE,52,0.0,2.0,80,0.00,,,0.00,Wunderground v.1.15,2013-01-15 17:42:00,
2013-01-15 09:43:00,40.2,34.2,30.51,NE,52,0.0,2.0,79,0.00,,,0.00,Wunderground v.1.15,2013-01-15 17:43:00,
2013-01-15 09:48:00,40.9,34.2,30.51,NE,52,0.0,2.0,77,0.00,,,0.00,Wunderground v.1.15,2013-01-15 17:48:00,
2013-01-15 09:50:00,41.2,34.2,30.51,NE,52,0.0,2.0,76,0.00,,,0.00,Wunderground v.1.15,2013-01-15 17:50:00,
2013-01-15 09:52:00,41.5,34.2,30.51,NE,52,0.0,2.0,75,0.00,,,0.00,Wunderground v.1.15,2013-01-15 17:52:00,
2013-01-15 09:54:00,41.6,33.9,30.51,NE,52,0.0,2.0,74,0.00,,,0.00,Wunderground v.1.15,2013-01-15 17:54:00,
2013-01-15 09:58:00,41.7,34.0,30.51,NE,52,0.0,2.0,74,0.00,,,0.00,Wunderground v.1.15,2013-01-15 17:58:00,
2013-01-15 09:59:00,41.7,34.0,30.51,NE,52,0.0,2.0,74,0.00,,,0.00,Wunderground v.1.15,2013-01-15 17:59:00,
2013-01-15 10:00:00,41.7,34.0,30.51,NE,52,0.0,3.0,74,0.00,,,0.00,Wunderground v.1.15,2013-01-15 18:00:00,
2013-01-15 10:02:00,41.6,33.9,30.52,NE,52,1.0,3.0,74,0.00,,,0.00,Wunderground v.1.15,2013-01-15 18:02:00,
2013-01-15 10:05:00,41.6,33.9,30.51,NE,52,1.0,3.0,74,0.00,,,0.00,Wunderground v.1.15,2013-01-15 18:05:00,
2013-01-15 10:06:00,41.6,33.9,30.51,NE,52,1.0,3.0,74,0.00,,,0.00,Wunderground v.1.15,2013-01-15 18:06:00,
2013-01-15 10:07:00,41.5,33.8,30.52,NE,52,1.0,3.0,74,0.00,,,0.00,Wunderground v.1.15,2013-01-15 18:07:00,
2013-01-15 10:08:00,41.5,33.8,30.51,NE,52,1.0,3.0,74,0.00,,,0.00,Wunderground v.1.15,2013-01-15 18:08:00,
2013-01-15 10:13:00,41.1,32.4,30.51,NE,52,2.0,3.0,71,0.00,,,0.00,Wunderground v.1.15,2013-01-15 18:13:00,
2013-01-15 10:14:00,41.1,32.8,30.51,NE,52,2.0,3.0,72,0.00,,,0.00,Wunderground v.1.15,2013-01-15 18:14:00,
2013-01-15 10:15:00,41.2,32.9,30.51,NE,52,2.0,3.0,72,0.00,,,0.00,Wunderground v.1.15,2013-01-15 18:15:00,
2013-01-15 10:18:00,41.2,32.5,30.51,NE,52,2.0,3.0,71,0.00,,,0.00,Wunderground v.1.15,2013-01-15 18:18:00,
2013-01-15 10:20:00,41.2,32.2,30.51,NE,52,2.0,2.0,70,0.00,,,0.00,Wunderground v.1.15,2013-01-15 18:20:00,
2013-01-15 10:22:00,41.3,32.2,30.51,NE,52,2.0,3.0,70,0.00,,,0.00,Wunderground v.1.15,2013-01-15 18:22:00,
2013-01-15 10:24:00,41.4,32.3,30.51,NE,52,1.0,3.0,70,0.00,,,0.00,Wunderground v.1.15,2013-01-15 18:24:00,
2013-01-15 10:26:00,41.5,32.4,30.51,ENE,57,1.0,3.0,70,0.00,,,0.00,Wunderground v.1.15,2013-01-15 18:26:00,
2013-01-15 10:29:00,41.6,31.8,30.51,ENE,67,1.0,3.0,68,0.00,,,0.00,Wunderground v.1.15,2013-01-15 18:29:00,
2013-01-15 10:31:00,41.7,31.5,30.51,ENE,68,1.0,2.0,67,0.00,,,0.00,Wunderground v.1.15,2013-01-15 18:31:00,
2013-01-15 10:34:00,41.8,32.0,30.51,ENE,68,1.0,2.0,68,0.00,,,0.00,Wunderground v.1.15,2013-01-15 18:34:00,
2013-01-15 10:39:00,42.0,32.6,30.51,ESE,102,1.0,3.0,69,0.00,,,0.00,Wunderground v.1.15,2013-01-15 18:39:00,
2013-01-15 10:40:00,42.0,32.6,30.51,ESE,120,1.0,4.0,69,0.00,,,0.00,Wunderground v.1.15,2013-01-15 18:40:00,
2013-01-15 10:41:00,42.1,32.7,30.51,SE,144,2.0,4.0,69,0.00,,,0.00,Wunderground v.1.15,2013-01-15 18:41:00,
2013-01-15 10:46:00,42.2,32.4,30.51,SSE,165,3.0,4.0,68,0.00,,,0.00,Wunderground v.1.15,2013-01-15 18:46:00,
2013-01-15 10:48:00,42.3,32.5,30.51,South,179,3.0,4.0,68,0.00,,,0.00,Wunderground v.1.15,2013-01-15 18:48:00,
2013-01-15 10:50:00,42.4,32.9,30.51,SSE,164,3.0,4.0,69,0.00,,,0.00,Wunderground v.1.15,2013-01-15 18:50:00,
2013-01-15 10:54:00,42.5,33.0,30.51,South,171,3.0,4.0,69,0.00,,,0.00,Wunderground v.1.15,2013-01-15 18:54:00,
2013-01-15 10:58:00,42.8,32.6,30.51,South,184,2.0,4.0,67,0.00,,,0.00,Wunderground v.1.15,2013-01-15 18:58:00,
2013-01-15 11:00:00,42.9,32.7,30.50,South,172,2.0,2.0,67,0.00,,,0.00,Wunderground v.1.15,2013-01-15 19:00:00,
2013-01-15 11:04:00,43.2,32.6,30.50,SSE,163,2.0,4.0,66,0.00,,,0.00,Wunderground v.1.15,2013-01-15 19:04:00,
2013-01-15 11:05:00,43.3,32.3,30.50,SSE,168,3.0,4.0,65,0.00,,,0.00,Wunderground v.1.15,2013-01-15 19:05:00,
2013-01-15 11:06:00,43.4,32.4,30.50,SSE,158,3.0,4.0,65,0.00,,,0.00,Wunderground v.1.15,2013-01-15 19:06:00,
2013-01-15 11:10:00,43.6,32.2,30.50,SE,145,2.0,5.0,64,0.00,,,0.00,Wunderground v.1.15,2013-01-15 19:10:00,
2013-01-15 11:12:00,43.6,32.2,30.50,SSE,164,2.0,5.0,64,0.00,,,0.00,Wunderground v.1.15,2013-01-15 19:12:00,
2013-01-15 11:13:00,43.6,32.2,30.50,South,170,2.0,5.0,64,0.00,,,0.00,Wunderground v.1.15,2013-01-15 19:13:00,
2013-01-15 11:15:00,43.7,32.7,30.50,South,170,2.0,5.0,65,0.00,,,0.00,Wunderground v.1.15,2013-01-15 19:15:00,
2013-01-15 11:17:00,43.7,32.7,30.50,South,170,2.0,5.0,65,0.00,,,0.00,Wunderground v.1.15,2013-01-15 19:17:00,
2013-01-15 11:20:00,44.0,33.0,30.50,South,170,1.0,2.0,65,0.00,,,0.00,Wunderground v.1.15,2013-01-15 19:20:00,
2013-01-15 11:22:00,44.1,33.1,30.50,South,187,1.0,4.0,65,0.00,,,0.00,Wunderground v.1.15,2013-01-15 19:22:00,
2013-01-15 11:23:00,44.1,33.1,30.49,SSW,196,1.0,5.0,65,0.00,,,0.00,Wunderground v.1.15,2013-01-15 19:23:00,
2013-01-15 11:27:00,44.1,32.7,30.49,SSW,199,2.0,5.0,64,0.00,,,0.00,Wunderground v.1.15,2013-01-15 19:27:00,
2013-01-15 11:28:00,44.2,33.2,30.49,SSW,200,2.0,5.0,65,0.00,,,0.00,Wunderground v.1.15,2013-01-15 19:28:00,
2013-01-15 11:31:00,44.3,33.3,30.49,SSE,152,3.0,3.0,65,0.00,,,0.00,Wunderground v.1.15,2013-01-15 19:31:00,
2013-01-15 11:33:00,44.4,33.4,30.49,SSE,152,2.0,3.0,65,0.00,,,0.00,Wunderground v.1.15,2013-01-15 19:33:00,
2013-01-15 11:35:00,44.5,33.5,30.50,SSE,152,2.0,3.0,65,0.00,,,0.00,Wunderground v.1.15,2013-01-15 19:35:00,
2013-01-15 11:36:00,44.5,33.5,30.50,SSE,152,2.0,3.0,65,0.00,,,0.00,Wunderground v.1.15,2013-01-15 19:36:00,
2013-01-15 11:40:00,44.7,33.6,30.49,SSE,152,1.0,1.0,65,0.00,,,0.00,Wunderground v.1.15,2013-01-15 19:40:00,
2013-01-15 11:41:00,44.8,34.1,30.49,SSE,152,1.0,2.0,66,0.00,,,0.00,Wunderground v.1.15,2013-01-15 19:41:00,
2013-01-15 11:45:00,45.1,34.0,30.49,SE,143,1.0,4.0,65,0.00,,,0.00,Wunderground v.1.15,2013-01-15 19:45:00,
2013-01-15 11:48:00,45.2,33.3,30.49,SE,143,1.0,4.0,63,0.00,,,0.00,Wunderground v.1.15,2013-01-15 19:48:00,
2013-01-15 11:50:00,45.3,33.4,30.49,SE,143,1.0,1.0,63,0.00,,,0.00,Wunderground v.1.15,2013-01-15 19:50:00,
2013-01-15 11:54:00,45.7,33.8,30.48,SE,145,1.0,2.0,63,0.00,,,0.00,Wunderground v.1.15,2013-01-15 19:54:00,
2013-01-15 11:55:00,45.8,33.9,30.49,SSE,150,1.0,2.0,63,0.00,,,0.00,Wunderground v.1.15,2013-01-15 19:55:00,
2013-01-15 12:00:00,46.1,34.2,30.48,SSE,150,0.0,2.0,63,0.00,,,0.00,Wunderground v.1.15,2013-01-15 20:00:00,
2013-01-15 12:01:00,46.2,33.9,30.48,SSE,150,0.0,2.0,62,0.00,,,0.00,Wunderground v.1.15,2013-01-15 20:01:00,
2013-01-15 12:06:00,46.6,34.3,30.48,SSE,151,0.0,2.0,62,0.00,,,0.00,Wunderground v.1.15,2013-01-15 20:06:00,
2013-01-15 12:08:00,46.8,34.5,30.48,SSE,150,0.0,2.0,62,0.00,,,0.00,Wunderground v.1.15,2013-01-15 20:08:00,
2013-01-15 12:09:00,46.9,34.6,30.48,SSE,150,1.0,2.0,62,0.00,,,0.00,Wunderground v.1.15,2013-01-15 20:09:00,
2013-01-15 12:13:00,47.2,34.4,30.48,SSE,150,1.0,2.0,61,0.00,,,0.00,Wunderground v.1.15,2013-01-15 20:13:00,
2013-01-15 12:14:00,47.3,34.5,30.48,SSE,150,1.0,2.0,61,0.00,,,0.00,Wunderground v.1.15,2013-01-15 20:14:00,
2013-01-15 12:15:00,47.3,34.5,30.48,SSE,151,1.0,3.0,61,0.00,,,0.00,Wunderground v.1.15,2013-01-15 20:15:00,
2013-01-15 12:20:00,47.6,34.4,30.48,SE,130,1.0,2.0,60,0.00,,,0.00,Wunderground v.1.15,2013-01-15 20:20:00,
2013-01-15 12:21:00,47.6,34.4,30.48,SE,129,1.0,2.0,60,0.00,,,0.00,Wunderground v.1.15,2013-01-15 20:21:00,
2013-01-15 12:25:00,47.6,34.4,30.48,SE,129,1.0,2.0,60,0.00,,,0.00,Wunderground v.1.15,2013-01-15 20:25:00,
2013-01-15 12:27:00,47.7,34.5,30.48,SE,129,1.0,2.0,60,0.00,,,0.00,Wunderground v.1.15,2013-01-15 20:27:00,
2013-01-15 12:31:00,48.0,33.9,30.48,South,170,1.0,5.0,58,0.00,,,0.00,Wunderground v.1.15,2013-01-15 20:31:00,
2013-01-15 12:32:00,48.1,34.0,30.47,SSW,196,2.0,7.0,58,0.00,,,0.00,Wunderground v.1.15,2013-01-15 20:32:00,
2013-01-15 12:34:00,48.2,34.1,30.47,SSE,160,3.0,7.0,58,0.00,,,0.00,Wunderground v.1.15,2013-01-15 20:34:00,
2013-01-15 12:36:00,48.2,34.1,30.47,SSE,152,4.0,9.0,58,0.00,,,0.00,Wunderground v.1.15,2013-01-15 20:36:00,
2013-01-15 12:38:00,48.1,34.4,30.47,South,179,5.0,9.0,59,0.00,,,0.00,Wunderground v.1.15,2013-01-15 20:38:00,
2013-01-15 12:40:00,48.1,34.4,30.47,SE,141,6.0,6.0,59,0.00,,,0.00,Wunderground v.1.15,2013-01-15 20:40:00,
2013-01-15 12:45:00,48.4,34.3,30.47,SSE,154,6.0,9.0,58,0.00,,,0.00,Wunderground v.1.15,2013-01-15 20:45:00,
2013-01-15 12:46:00,48.4,33.9,30.47,SE,129,6.0,9.0,57,0.00,,,0.00,Wunderground v.1.15,2013-01-15 20:46:00,
2013-01-15 12:50:00,48.3,33.8,30.47,South,171,6.0,6.0,57,0.00,,,0.00,Wunderground v.1.15,2013-01-15 20:50:00,
2013-01-15 12:51:00,48.3,33.8,30.46,South,173,6.0,6.0,57,0.00,,,0.00,Wunderground v.1.15,2013-01-15 20:51:00,
2013-01-15 12:56:00,48.6,34.0,30.46,SSE,163,6.0,9.0,57,0.00,,,0.00,Wunderground v.1.15,2013-01-15 20:56:00,
2013-01-15 12:57:00,48.6,34.0,30.46,SSE,149,6.0,9.0,57,0.00,,,0.00,Wunderground v.1.15,2013-01-15 20:57:00,
2013-01-15 13:02:00,48.6,34.0,30.46,SE,135,6.0,7.0,57,0.00,,,0.00,Wunderground v.1.15,2013-01-15 21:02:00,
2013-01-15 13:03:00,48.6,34.0,30.46,SSE,149,6.0,7.0,57,0.00,,,0.00,Wunderground v.1.15,2013-01-15 21:03:00,
2013-01-15 13:09:00,48.8,34.7,30.46,SSE,160,5.0,7.0,58,0.00,,,0.00,Wunderground v.1.15,2013-01-15 21:09:00,
2013-01-15 13:10:00,48.8,34.7,30.46,South,174,5.0,6.0,58,0.00,,,0.00,Wunderground v.1.15,2013-01-15 21:10:00,
2013-01-15 13:11:00,48.9,34.8,30.46,SSE,150,5.0,9.0,58,0.00,,,0.00,Wunderground v.1.15,2013-01-15 21:11:00,
2013-01-15 13:17:00,48.9,34.8,30.46,South,181,6.0,10.0,58,0.00,,,0.00,Wunderground v.1.15,2013-01-15 21:17:00,
2013-01-15 13:18:00,48.9,34.3,30.46,SSW,195,6.0,10.0,57,0.00,,,0.00,Wunderground v.1.15,2013-01-15 21:18:00,
2013-01-15 13:23:00,49.1,34.1,30.45,SE,136,5.0,6.0,56,0.00,,,0.00,Wunderground v.1.15,2013-01-15 21:23:00,
2013-01-15 13:25:00,49.2,34.2,30.45,SE,144,5.0,6.0,56,0.00,,,0.00,Wunderground v.1.15,2013-01-15 21:25:00,
2013-01-15 13:31:00,49.4,33.9,30.45,SE,129,5.0,7.0,55,0.00,,,0.00,Wunderground v.1.15,2013-01-15 21:31:00,
2013-01-15 13:32:00,49.3,33.3,30.45,SE,129,5.0,7.0,54,0.00,,,0.00,Wunderground v.1.15,2013-01-15 21:32:00,
2013-01-15 13:33:00,49.3,33.3,30.45,SE,129,5.0,7.0,54,0.00,,,0.00,Wunderground v.1.15,2013-01-15 21:33:00,
2013-01-15 13:38:00,49.6,33.6,30.45,South,177,4.0,7.0,54,0.00,,,0.00,Wunderground v.1.15,2013-01-15 21:38:00,
2013-01-15 13:39:00,49.6,34.1,30.45,South,170,4.0,7.0,55,0.00,,,0.00,Wunderground v.1.15,2013-01-15 21:39:00,
2013-01-15 13:40:00,49.6,33.6,30.45,South,180,4.0,5.0,54,0.00,,,0.00,Wunderground v.1.15,2013-01-15 21:40:00,
2013-01-15 13:45:00,49.8,34.3,30.45,South,176,4.0,5.0,55,0.00,,,0.00,Wunderground v.1.15,2013-01-15 21:45:00,
2013-01-15 13:46:00,49.8,34.3,30.45,SE,137,4.0,6.0,55,0.00,,,0.00,Wunderground v.1.15,2013-01-15 21:46:00,
2013-01-15 13:48:00,49.9,33.9,30.45,SSE,151,4.0,6.0,54,0.00,,,0.00,Wunderground v.1.15,2013-01-15 21:48:00,
2013-01-15 13:51:00,49.9,34.4,30.45,South,173,4.0,6.0,55,0.00,,,0.00,Wunderground v.1.15,2013-01-15 21:51:00,
2013-01-15 13:52:00,50.1,34.5,30.45,SSE,153,4.0,7.0,55,0.00,,,0.00,Wunderground v.1.15,2013-01-15 21:52:00,
2013-01-15 13:53:00,50.1,34.1,30.45,SSE,154,4.0,7.0,54,0.00,,,0.00,Wunderground v.1.15,2013-01-15 21:53:00,
2013-01-15 13:54:00,50.0,34.0,30.45,SSE,150,4.0,7.0,54,0.00,,,0.00,Wunderground v.1.15,2013-01-15 21:54:00,
2013-01-15 13:58:00,49.9,33.4,30.45,SSE,163,4.0,7.0,53,0.00,,,0.00,Wunderground v.1.15,2013-01-15 21:58:00,
2013-01-15 13:59:00,49.8,33.3,30.45,SSE,162,4.0,7.0,53,0.00,,,0.00,Wunderground v.1.15,2013-01-15 21:59:00,
2013-01-15 14:01:00,49.7,33.2,30.45,SSE,164,4.0,4.0,53,0.00,,,0.00,Wunderground v.1.15,2013-01-15 22:01:00,
2013-01-15 14:04:00,49.7,34.2,30.45,SSE,164,4.0,8.0,55,0.00,,,0.00,Wunderground v.1.15,2013-01-15 22:04:00,
2013-01-15 14:05:00,49.8,33.8,30.45,SSE,161,4.0,8.0,54,0.00,,,0.00,Wunderground v.1.15,2013-01-15 22:05:00,
2013-01-15 14:07:00,49.9,34.8,30.45,SSE,162,4.0,8.0,56,0.00,,,0.00,Wunderground v.1.15,2013-01-15 22:07:00,
2013-01-15 14:12:00,49.7,34.2,30.45,SSE,164,5.0,7.0,55,0.00,,,0.00,Wunderground v.1.15,2013-01-15 22:12:00,
2013-01-15 14:14:00,49.8,33.8,30.45,SSE,163,4.0,7.0,54,0.00,,,0.00,Wunderground v.1.15,2013-01-15 22:14:00,
2013-01-15 14:16:00,49.9,33.9,30.45,South,173,4.0,7.0,54,0.00,,,0.00,Wunderground v.1.15,2013-01-15 22:16:00,
2013-01-15 14:18:00,50.0,34.5,30.45,SSE,151,4.0,7.0,55,0.00,,,0.00,Wunderground v.1.15,2013-01-15 22:18:00,
2013-01-15 14:20:00,50.0,34.0,30.45,SE,137,4.0,6.0,54,0.00,,,0.00,Wunderground v.1.15,2013-01-15 22:20:00,
2013-01-15 14:24:00,50.0,33.5,30.45,SSE,156,3.0,6.0,53,0.00,,,0.00,Wunderground v.1.15,2013-01-15 22:24:00,
2013-01-15 14:26:00,50.0,34.0,30.45,SE,133,3.0,6.0,54,0.00,,,0.00,Wunderground v.1.15,2013-01-15 22:26:00,
2013-01-15 14:30:00,50.0,34.0,30.45,SSE,148,3.0,5.0,54,0.00,,,0.00,Wunderground v.1.15,2013-01-15 22:30:00,
2013-01-15 14:31:00,50.1,34.1,30.45,SSE,165,3.0,5.0,54,0.00,,,0.00,Wunderground v.1.15,2013-01-15 22:31:00,
2013-01-15 14:32:00,50.1,34.1,30.45,SSE,168,3.0,5.0,54,0.00,,,0.00,Wunderground v.1.15,2013-01-15 22:32:00,
2013-01-15 14:36:00,50.2,33.7,30.45,SSE,152,3.0,5.0,53,0.00,,,0.00,Wunderground v.1.15,2013-01-15 22:36:00,
2013-01-15 14:37:00,50.2,33.2,30.45,SSE,148,3.0,5.0,52,0.00,,,0.00,Wunderground v.1.15,2013-01-15 22:37:00,
2013-01-15 14:38:00,50.2,33.7,30.45,SSE,148,3.0,5.0,53,0.00,,,0.00,Wunderground v.1.15,2013-01-15 22:38:00,
2013-01-15 14:43:00,50.5,34.0,30.45,South,171,2.0,5.0,53,0.00,,,0.00,Wunderground v.1.15,2013-01-15 22:43:00,
2013-01-15 14:45:00,50.5,34.0,30.45,South,171,2.0,5.0,53,0.00,,,0.00,Wunderground v.1.15,2013-01-15 22:45:00,
2013-01-15 14:47:00,50.5,34.0,30.45,SSE,152,2.0,5.0,53,0.00,,,0.00,Wunderground v.1.15,2013-01-15 22:47:00,
2013-01-15 14:49:00,50.5,33.5,30.45,SSE,152,2.0,5.0,52,0.00,,,0.00,Wunderground v.1.15,2013-01-15 22:49:00,
2013-01-15 14:51:00,50.6,33.6,30.44,SSE,156,2.0,7.0,52,0.00,,,0.00,Wunderground v.1.15,2013-01-15 22:51:00,
2013-01-15 14:54:00,50.6,33.6,30.44,SE,144,2.0,7.0,52,0.00,,,0.00,Wunderground v.1.15,2013-01-15 22:54:00,
2013-01-15 14:55:00,50.6,33.6,30.44,SE,144,3.0,7.0,52,0.00,,,0.00,Wunderground v.1.15,2013-01-15 22:55:00,
2013-01-15 14:57:00,50.6,33.6,30.44,SE,133,3.0,7.0,52,0.00,,,0.00,Wunderground v.1.15,2013-01-15 22:57:00,
2013-01-15 14:59:00,50.6,34.1,30.44,SSE,151,3.0,7.0,53,0.00,,,0.00,Wunderground v.1.15,2013-01-15 22:59:00,
2013-01-15 15:01:00,50.6,33.6,30.44,SSE,152,3.0,3.0,52,0.00,,,0.00,Wunderground v.1.15,2013-01-15 23:01:00,
2013-01-15 15:05:00,50.7,34.2,30.44,SSE,167,3.0,5.0,53,0.00,,,0.00,Wunderground v.1.15,2013-01-15 23:05:00,
2013-01-15 15:06:00,50.7,33.7,30.44,South,174,3.0,5.0,52,0.00,,,0.00,Wunderground v.1.15,2013-01-15 23:06:00,
2013-01-15 15:07:00,50.7,33.7,30.44,SSE,157,3.0,5.0,52,0.00,,,0.00,Wunderground v.1.15,2013-01-15 23:07:00,
2013-01-15 15:11:00,50.6,34.1,30.44,South,178,4.0,4.0,53,0.00,,,0.00,Wunderground v.1.15,2013-01-15 23:11:00,
2013-01-15 15:12:00,50.7,33.7,30.44,South,185,4.0,6.0,52,0.00,,,0.00,Wunderground v.1.15,2013-01-15 23:12:00,
2013-01-15 15:13:00,50.6,33.1,30.44,South,185,4.0,6.0,51,0.00,,,0.00,Wunderground v.1.15,2013-01-15 23:13:00,
2013-01-15 15:14:00,50.6,33.1,30.44,South,180,4.0,6.0,51,0.00,,,0.00,Wunderground v.1.15,2013-01-15 23:14:00,
2013-01-15 15:17:00,50.6,33.6,30.45,South,170,4.0,6.0,52,0.00,,,0.00,Wunderground v.1.15,2013-01-15 23:17:00,
2013-01-15 15:18:00,50.6,33.1,30.45,South,177,4.0,6.0,51,0.00,,,0.00,Wunderground v.1.15,2013-01-15 23:18:00,
2013-01-15 15:19:00,50.6,33.6,30.45,SSE,168,4.0,6.0,52,0.00,,,0.00,Wunderground v.1.15,2013-01-15 23:19:00,
2013-01-15 15:24:00,50.6,33.6,30.45,SSE,154,4.0,6.0,52,0.00,,,0.00,Wunderground v.1.15,2013-01-15 23:24:00,
2013-01-15 15:25:00,50.6,33.6,30.45,South,177,4.0,6.0,52,0.00,,,0.00,Wunderground v.1.15,2013-01-15 23:25:00,
2013-01-15 15:26:00,50.5,33.5,30.45,SSE,166,4.0,6.0,52,0.00,,,0.00,Wunderground v.1.15,2013-01-15 23:26:00,
2013-01-15 15:29:00,50.6,34.1,30.45,SSE,147,4.0,8.0,53,0.00,,,0.00,Wunderground v.1.15,2013-01-15 23:29:00,
2013-01-15 15:32:00,50.4,33.9,30.45,SE,146,5.0,8.0,53,0.00,,,0.00,Wunderground v.1.15,2013-01-15 23:32:00,
2013-01-15 15:33:00,50.3,33.8,30.45,SSE,156,5.0,8.0,53,0.00,,,0.00,Wunderground v.1.15,2013-01-15 23:33:00,
2013-01-15 15:36:00,50.3,33.8,30.45,SE,135,5.0,8.0,53,0.00,,,0.00,Wunderground v.1.15,2013-01-15 23:36:00,
2013-01-15 15:39:00,50.4,33.4,30.45,SE,141,6.0,8.0,52,0.00,,,0.00,Wunderground v.1.15,2013-01-15 23:39:00,
2013-01-15 15:42:00,50.4,33.9,30.45,South,171,5.0,6.0,53,0.00,,,0.00,Wunderground v.1.15,2013-01-15 23:42:00,
2013-01-15 15:44:00,50.4,33.9,30.45,SSE,158,4.0,6.0,53,0.00,,,0.00,Wunderground v.1.15,2013-01-15 23:44:00,
2013-01-15 15:46:00,50.4,33.4,30.45,SSE,162,4.0,6.0,52,0.00,,,0.00,Wunderground v.1.15,2013-01-15 23:46:00,
2013-01-15 15:47:00,50.4,33.9,30.45,SSE,152,4.0,6.0,53,0.00,,,0.00,Wunderground v.1.15,2013-01-15 23:47:00,
2013-01-15 15:49:00,50.5,34.0,30.45,SSE,148,3.0,6.0,53,0.00,,,0.00,Wunderground v.1.15,2013-01-15 23:49:00,
2013-01-15 15:50:00,50.5,34.0,30.45,SSE,148,3.0,3.0,53,0.00,,,0.00,Wunderground v.1.15,2013-01-15 23:50:00,
2013-01-15 15:52:00,50.5,34.0,30.45,SSE,153,3.0,3.0,53,0.00,,,0.00,Wunderground v.1.15,2013-01-15 23:52:00,
2013-01-15 15:55:00,50.6,33.6,30.45,SSE,164,3.0,4.0,52,0.00,,,0.00,Wunderground v.1.15,2013-01-15 23:55:00,
2013-01-15 15:59:00,50.5,33.0,30.45,South,174,3.0,4.0,51,0.00,,,0.00,Wunderground v.1.15,2013-01-15 23:59:00,
2013-01-15 16:01:00,50.5,33.0,30.45,SSE,158,3.0,3.0,51,0.00,,,0.00,Wunderground v.1.15,2013-01-16 00:01:00,
2013-01-15 16:04:00,50.5,33.5,30.45,South,191,3.0,5.0,52,0.00,,,0.00,Wunderground v.1.15,2013-01-16 00:04:00,
2013-01-15 16:05:00,50.5,33.5,30.45,South,183,3.0,5.0,52,0.00,,,0.00,Wunderground v.1.15,2013-01-16 00:05:00,
2013-01-15 16:09:00,50.5,33.5,30.45,SSE,163,3.0,5.0,52,0.00,,,0.00,Wunderground v.1.15,2013-01-16 00:09:00,
2013-01-15 16:10:00,50.5,33.5,30.45,South,177,3.0,3.0,52,0.00,,,0.00,Wunderground v.1.15,2013-01-16 00:10:00,
2013-01-15 16:11:00,50.4,33.4,30.45,South,181,3.0,3.0,52,0.00,,,0.00,Wunderground v.1.15,2013-01-16 00:11:00,
2013-01-15 16:16:00,50.3,33.8,30.45,South,173,3.0,4.0,53,0.00,,,0.00,Wunderground v.1.15,2013-01-16 00:16:00,
2013-01-15 16:18:00,50.2,33.7,30.45,SSE,167,3.0,4.0,53,0.00,,,0.00,Wunderground v.1.15,2013-01-16 00:18:00,
2013-01-15 16:19:00,50.1,33.6,30.45,South,172,3.0,4.0,53,0.00,,,0.00,Wunderground v.1.15,2013-01-16 00:19:00,
2013-01-15 16:20:00,50.0,33.5,30.45,South,171,3.0,4.0,53,0.00,,,0.00,Wunderground v.1.15,2013-01-16 00:20:00,
2013-01-15 16:22:00,50.0,33.5,30.45,South,169,3.0,4.0,53,0.00,,,0.00,Wunderground v.1.15,2013-01-16 00:22:00,
2013-01-15 16:25:00,49.9,34.4,30.45,South,170,3.0,4.0,55,0.00,,,0.00,Wunderground v.1.15,2013-01-16 00:25:00,
2013-01-15 16:28:00,49.6,34.5,30.45,SSE,164,3.0,4.0,56,0.00,,,0.00,Wunderground v.1.15,2013-01-16 00:28:00,
2013-01-15 16:30:00,49.5,34.9,30.45,SSE,167,2.0,2.0,57,0.00,,,0.00,Wunderground v.1.15,2013-01-16 00:30:00,
2013-01-15 16:31:00,49.5,34.9,30.45,SSE,162,2.0,2.0,57,0.00,,,0.00,Wunderground v.1.15,2013-01-16 00:31:00,
2013-01-15 16:32:00,49.4,34.8,30.45,SSE,163,2.0,2.0,57,0.00,,,0.00,Wunderground v.1.15,2013-01-16 00:32:00,
2013-01-15 16:36:00,49.1,34.9,30.45,SSE,162,2.0,4.0,58,0.00,,,0.00,Wunderground v.1.15,2013-01-16 00:36:00,
2013-01-15 16:37:00,49.1,34.9,30.45,SSE,164,2.0,4.0,58,0.00,,,0.00,Wunderground v.1.15,2013-01-16 00:37:00,
2013-01-15 16:39:00,49.0,34.9,30.45,SSE,160,2.0,4.0,58,0.00,,,0.00,Wunderground v.1.15,2013-01-16 00:39:00,
2013-01-15 16:43:00,48.8,35.1,30.45,SSE,162,2.0,2.0,59,0.00,,,0.00,Wunderground v.1.15,2013-01-16 00:43:00,
2013-01-15 16:44:00,48.8,35.1,30.45,SSE,162,2.0,2.0,59,0.00,,,0.00,Wunderground v.1.15,2013-01-16 00:44:00,
2013-01-15 16:48:00,48.7,35.0,30.45,SSE,156,1.0,2.0,59,0.00,,,0.00,Wunderground v.1.15,2013-01-16 00:48:00,
2013-01-15 16:49:00,48.7,35.0,30.45,SSE,156,1.0,2.0,59,0.00,,,0.00,Wunderground v.1.15,2013-01-16 00:49:00,
2013-01-15 16:51:00,48.6,34.9,30.45,SSE,157,1.0,2.0,59,0.00,,,0.00,Wunderground v.1.15,2013-01-16 00:51:00,
2013-01-15 16:53:00,48.5,35.2,30.46,SSE,162,1.0,2.0,60,0.00,,,0.00,Wunderground v.1.15,2013-01-16 00:53:00,
2013-01-15 16:54:00,48.5,34.8,30.46,SSE,168,1.0,2.0,59,0.00,,,0.00,Wunderground v.1.15,2013-01-16 00:54:00,
2013-01-15 16:55:00,48.4,35.1,30.46,South,170,1.0,2.0,60,0.00,,,0.00,Wunderground v.1.15,2013-01-16 00:55:00,
2013-01-15 16:57:00,48.3,35.0,30.46,South,170,1.0,2.0,60,0.00,,,0.00,Wunderground v.1.15,2013-01-16 00:57:00,
2013-01-15 17:00:00,48.2,35.0,30.45,South,170,1.0,1.0,60,0.00,,,0.00,Wunderground v.1.15,2013-01-16 01:00:00,
2013-01-15 17:01:00,48.1,35.3,30.45,South,170,1.0,2.0,61,0.00,,,0.00,Wunderground v.1.15,2013-01-16 01:01:00,
2013-01-15 17:03:00,48.0,35.2,30.45,South,170,1.0,2.0,61,0.00,,,0.00,Wunderground v.1.15,2013-01-16 01:03:00,
2013-01-15 17:07:00,47.7,35.3,30.45,South,170,1.0,2.0,62,0.00,,,0.00,Wunderground v.1.15,2013-01-16 01:07:00,
2013-01-15 17:08:00,47.6,35.2,30.45,South,170,1.0,2.0,62,0.00,,,0.00,Wunderground v.1.15,2013-01-16 01:08:00,
2013-01-15 17:09:00,47.6,35.2,30.45,South,170,1.0,2.0,62,0.00,,,0.00,Wunderground v.1.15,2013-01-16 01:09:00,
2013-01-15 17:12:00,47.4,35.0,30.46,South,170,0.0,2.0,62,0.00,,,0.00,Wunderground v.1.15,2013-01-16 01:12:00,
2013-01-15 17:13:00,47.3,34.9,30.46,South,170,0.0,2.0,62,0.00,,,0.00,Wunderground v.1.15,2013-01-16 01:13:00,
2013-01-15 17:14:00,47.3,35.3,30.46,South,170,0.0,2.0,63,0.00,,,0.00,Wunderground v.1.15,2013-01-16 01:14:00,
2013-01-15 17:18:00,47.1,35.1,30.45,South,170,0.0,2.0,63,0.00,,,0.00,Wunderground v.1.15,2013-01-16 01:18:00,
2013-01-15 17:19:00,47.1,35.1,30.45,South,170,0.0,2.0,63,0.00,,,0.00,Wunderground v.1.15,2013-01-16 01:19:00,
2013-01-15 17:21:00,47.0,35.4,30.45,South,170,0.0,2.0,64,0.00,,,0.00,Wunderground v.1.15,2013-01-16 01:21:00,
2013-01-15 17:22:00,46.9,35.4,30.45,South,170,0.0,2.0,64,0.00,,,0.00,Wunderground v.1.15,2013-01-16 01:22:00,
2013-01-15 17:25:00,46.8,35.3,30.45,South,170,0.0,2.0,64,0.00,,,0.00,Wunderground v.1.15,2013-01-16 01:25:00,
2013-01-15 17:28:00,46.7,35.2,30.45,South,170,0.0,2.0,64,0.00,,,0.00,Wunderground v.1.15,2013-01-16 01:28:00,
2013-01-15 17:29:00,46.6,35.1,30.45,South,170,0.0,2.0,64,0.00,,,0.00,Wunderground v.1.15,2013-01-16 01:29:00,
2013-01-15 17:31:00,46.5,35.4,30.45,South,170,0.0,2.0,65,0.00,,,0.00,Wunderground v.1.15,2013-01-16 01:31:00,
2013-01-15 17:34:00,46.4,35.3,30.45,South,170,0.0,2.0,65,0.00,,,0.00,Wunderground v.1.15,2013-01-16 01:34:00,
2013-01-15 17:35:00,46.3,35.2,30.46,South,170,0.0,2.0,65,0.00,,,0.00,Wunderground v.1.15,2013-01-16 01:35:00,
2013-01-15 17:37:00,46.1,35.4,30.46,South,170,0.0,2.0,66,0.00,,,0.00,Wunderground v.1.15,2013-01-16 01:37:00,
2013-01-15 17:39:00,45.9,35.2,30.46,South,170,0.0,2.0,66,0.00,,,0.00,Wunderground v.1.15,2013-01-16 01:39:00,
2013-01-15 17:42:00,45.7,35.4,30.46,South,170,0.0,2.0,67,0.00,,,0.00,Wunderground v.1.15,2013-01-16 01:42:00,
2013-01-15 17:44:00,45.6,35.3,30.46,South,170,0.0,2.0,67,0.00,,,0.00,Wunderground v.1.15,2013-01-16 01:44:00,
2013-01-15 17:49:00,45.4,35.1,30.46,South,170,0.0,2.0,67,0.00,,,0.00,Wunderground v.1.15,2013-01-16 01:49:00,
2013-01-15 17:50:00,45.3,35.0,30.46,South,170,0.0,2.0,67,0.00,,,0.00,Wunderground v.1.15,2013-01-16 01:50:00,
2013-01-15 17:51:00,45.2,34.9,30.46,South,170,0.0,2.0,67,0.00,,,0.00,Wunderground v.1.15,2013-01-16 01:51:00,
2013-01-15 17:56:00,44.9,35.0,30.46,South,170,0.0,2.0,68,0.00,,,0.00,Wunderground v.1.15,2013-01-16 01:56:00,
2013-01-15 17:57:00,44.9,35.0,30.46,South,170,0.0,2.0,68,0.00,,,0.00,Wunderground v.1.15,2013-01-16 01:57:00,
2013-01-15 17:59:00,44.7,34.4,30.46,South,170,0.0,2.0,67,0.00,,,0.00,Wunderground v.1.15,2013-01-16 01:59:00,
2013-01-15 18:00:00,44.6,34.3,30.46,South,170,0.0,2.0,67,0.00,,,0.00,Wunderground v.1.15,2013-01-16 02:00:00,
2013-01-15 18:04:00,44.1,34.2,30.46,South,170,1.0,3.0,68,0.00,,,0.00,Wunderground v.1.15,2013-01-16 02:04:00,
2013-01-15 18:06:00,43.9,34.0,30.46,South,170,1.0,3.0,68,0.00,,,0.00,Wunderground v.1.15,2013-01-16 02:06:00,
2013-01-15 18:10:00,43.7,34.2,30.46,South,170,2.0,3.0,69,0.00,,,0.00,Wunderground v.1.15,2013-01-16 02:10:00,
2013-01-15 18:12:00,43.6,34.1,30.46,South,169,2.0,3.0,69,0.00,,,0.00,Wunderground v.1.15,2013-01-16 02:12:00,
2013-01-15 18:14:00,43.5,34.0,30.46,South,169,2.0,3.0,69,0.00,,,0.00,Wunderground v.1.15,2013-01-16 02:14:00,
2013-01-15 18:17:00,43.3,33.8,30.46,South,169,2.0,3.0,69,0.00,,,0.00,Wunderground v.1.15,2013-01-16 02:17:00,
2013-01-15 18:19:00,43.1,34.0,30.46,South,169,2.0,3.0,70,0.00,,,0.00,Wunderground v.1.15,2013-01-16 02:19:00,
2013-01-15 18:21:00,42.9,33.8,30.46,South,169,2.0,2.0,70,0.00,,,0.00,Wunderground v.1.15,2013-01-16 02:21:00,
2013-01-15 18:25:00,42.5,33.8,30.46,SSE,152,2.0,4.0,71,0.00,,,0.00,Wunderground v.1.15,2013-01-16 02:25:00,
2013-01-15 18:26:00,42.5,33.8,30.46,SSE,149,2.0,4.0,71,0.00,,,0.00,Wunderground v.1.15,2013-01-16 02:26:00,
2013-01-15 18:30:00,42.2,33.8,30.46,SE,142,2.0,2.0,72,0.00,,,0.00,Wunderground v.1.15,2013-01-16 02:30:00,
2013-01-15 18:31:00,42.1,33.7,30.46,SE,142,3.0,3.0,72,0.00,,,0.00,Wunderground v.1.15,2013-01-16 02:31:00,
2013-01-15 18:34:00,41.8,33.4,30.46,SE,135,3.0,3.0,72,0.00,,,0.00,Wunderground v.1.15,2013-01-16 02:34:00,
2013-01-15 18:37:00,41.6,33.6,30.46,ESE,114,3.0,3.0,73,0.00,,,0.00,Wunderground v.1.15,2013-01-16 02:37:00,
2013-01-15 18:38:00,41.6,33.6,30.46,ESE,114,3.0,3.0,73,0.00,,,0.00,Wunderground v.1.15,2013-01-16 02:38:00,
2013-01-15 18:40:00,41.5,33.5,30.46,ESE,114,2.0,2.0,73,0.00,,,0.00,Wunderground v.1.15,2013-01-16 02:40:00,
2013-01-15 18:42:00,41.3,33.3,30.46,ESE,114,2.0,2.0,73,0.00,,,0.00,Wunderground v.1.15,2013-01-16 02:42:00,
2013-01-15 18:44:00,41.2,33.2,30.46,ESE,114,2.0,2.0,73,0.00,,,0.00,Wunderground v.1.15,2013-01-16 02:44:00,
2013-01-15 18:45:00,41.2,33.2,30.46,ESE,114,1.0,2.0,73,0.00,,,0.00,Wunderground v.1.15,2013-01-16 02:45:00,
2013-01-15 18:47:00,41.1,33.4,30.46,ESE,114,1.0,2.0,74,0.00,,,0.00,Wunderground v.1.15,2013-01-16 02:47:00,
2013-01-15 18:51:00,40.9,33.2,30.46,ESE,114,1.0,2.0,74,0.00,,,0.00,Wunderground v.1.15,2013-01-16 02:51:00,
2013-01-15 18:52:00,40.9,33.2,30.46,ESE,114,1.0,2.0,74,0.00,,,0.00,Wunderground v.1.15,2013-01-16 02:52:00,
2013-01-15 18:53:00,40.8,33.2,30.46,ESE,114,1.0,2.0,74,0.00,,,0.00,Wunderground v.1.15,2013-01-16 02:53:00,
2013-01-15 18:58:00,40.6,33.0,30.46,ESE,114,1.0,3.0,74,0.00,,,0.00,Wunderground v.1.15,2013-01-16 02:58:00,
2013-01-15 18:59:00,40.5,32.9,30.46,ESE,114,2.0,3.0,74,0.00,,,0.00,Wunderground v.1.15,2013-01-16 02:59:00,
2013-01-15 19:00:00,40.4,32.8,30.46,ESE,114,1.0,1.0,74,0.00,,,0.00,Wunderground v.1.15,2013-01-16 03:00:00,
2013-01-15 19:04:00,40.2,32.9,30.46,ENE,72,2.0,5.0,75,0.00,,,0.00,Wunderground v.1.15,2013-01-16 03:04:00,
2013-01-15 19:05:00,40.1,32.8,30.46,ENE,68,2.0,5.0,75,0.00,,,0.00,Wunderground v.1.15,2013-01-16 03:05:00,
2013-01-15 19:06:00,40.1,32.8,30.46,ENE,66,2.0,5.0,75,0.00,,,0.00,Wunderground v.1.15,2013-01-16 03:06:00,
2013-01-15 19:08:00,40.0,32.7,30.46,ENE,60,3.0,5.0,75,0.00,,,0.00,Wunderground v.1.15,2013-01-16 03:08:00,
2013-01-15 19:10:00,39.9,32.6,30.46,ENE,58,3.0,3.0,75,0.00,,,0.00,Wunderground v.1.15,2013-01-16 03:10:00,
2013-01-15 19:12:00,39.8,32.5,30.46,ENE,58,3.0,3.0,75,0.00,,,0.00,Wunderground v.1.15,2013-01-16 03:12:00,
2013-01-15 19:13:00,39.8,32.5,30.46,ENE,58,3.0,3.0,75,0.00,,,0.00,Wunderground v.1.15,2013-01-16 03:13:00,
2013-01-15 19:14:00,39.8,32.5,30.46,ENE,58,3.0,3.0,75,0.00,,,0.00,Wunderground v.1.15,2013-01-16 03:14:00,
2013-01-15 19:18:00,39.5,32.6,30.46,ENE,57,3.0,3.0,76,0.00,,,0.00,Wunderground v.1.15,2013-01-16 03:18:00,
2013-01-15 19:20:00,39.4,32.5,30.46,ENE,57,3.0,3.0,76,0.00,,,0.00,Wunderground v.1.15,2013-01-16 03:20:00,
2013-01-15 19:21:00,39.3,32.4,30.46,ENE,57,2.0,3.0,76,0.00,,,0.00,Wunderground v.1.15,2013-01-16 03:21:00,
2013-01-15 19:23:00,39.2,32.6,30.46,ENE,57,2.0,3.0,77,0.00,,,0.00,Wunderground v.1.15,2013-01-16 03:23:00,
2013-01-15 19:26:00,39.1,32.5,30.46,ENE,57,1.0,3.0,77,0.00,,,0.00,Wunderground v.1.15,2013-01-16 03:26:00,
2013-01-15 19:28:00,38.9,32.6,30.46,ENE,57,1.0,3.0,78,0.00,,,0.00,Wunderground v.1.15,2013-01-16 03:28:00,
2013-01-15 19:29:00,38.8,32.2,30.46,ENE,57,0.0,3.0,77,0.00,,,0.00,Wunderground v.1.15,2013-01-16 03:29:00,
2013-01-15 19:33:00,38.7,32.4,30.46,ENE,57,0.0,2.0,78,0.00,,,0.00,Wunderground v.1.15,2013-01-16 03:33:00,
2013-01-15 19:35:00,38.6,32.3,30.46,ENE,57,0.0,2.0,78,0.00,,,0.00,Wunderground v.1.15,2013-01-16 03:35:00,
2013-01-15 19:39:00,38.6,32.6,30.46,ENE,57,1.0,3.0,79,0.00,,,0.00,Wunderground v.1.15,2013-01-16 03:39:00,
2013-01-15 19:40:00,38.6,32.6,30.46,ENE,57,1.0,2.0,79,0.00,,,0.00,Wunderground v.1.15,2013-01-16 03:40:00,
2013-01-15 19:42:00,38.6,32.6,30.46,ENE,57,1.0,2.0,79,0.00,,,0.00,Wunderground v.1.15,2013-01-16 03:42:00,
2013-01-15 19:46:00,38.6,32.6,30.46,ENE,58,2.0,3.0,79,0.00,,,0.00,Wunderground v.1.15,2013-01-16 03:46:00,
2013-01-15 19:47:00,38.6,32.6,30.46,ENE,57,2.0,3.0,79,0.00,,,0.00,Wunderground v.1.15,2013-01-16 03:47:00,
2013-01-15 19:48:00,38.6,32.6,30.46,ENE,57,2.0,3.0,79,0.00,,,0.00,Wunderground v.1.15,2013-01-16 03:48:00,
2013-01-15 19:49:00,38.7,32.7,30.46,ENE,58,2.0,3.0,79,0.00,,,0.00,Wunderground v.1.15,2013-01-16 03:49:00,
2013-01-15 19:52:00,38.7,32.7,30.46,ENE,57,2.0,2.0,79,0.00,,,0.00,Wunderground v.1.15,2013-01-16 03:52:00,
2013-01-15 19:54:00,38.7,32.7,30.46,ENE,57,2.0,2.0,79,0.00,,,0.00,Wunderground v.1.15,2013-01-16 03:54:00,
2013-01-15 19:55:00,38.7,32.7,30.46,ENE,57,2.0,3.0,79,0.00,,,0.00,Wunderground v.1.15,2013-01-16 03:55:00,
2013-01-15 19:58:00,38.8,32.8,30.46,ENE,57,2.0,3.0,79,0.00,,,0.00,Wunderground v.1.15,2013-01-16 03:58:00,
2013-01-15 20:01:00,39.0,32.7,30.46,ENE,57,3.0,3.0,78,0.00,,,0.00,Wunderground v.1.15,2013-01-16 04:01:00,
2013-01-15 20:02:00,38.9,32.6,30.46,ENE,57,2.0,3.0,78,0.00,,,0.00,Wunderground v.1.15,2013-01-16 04:02:00,
2013-01-15 20:06:00,38.7,32.4,30.46,ENE,58,2.0,3.0,78,0.00,,,0.00,Wunderground v.1.15,2013-01-16 04:06:00,
2013-01-15 20:07:00,38.6,32.3,30.46,ENE,57,1.0,3.0,78,0.00,,,0.00,Wunderground v.1.15,2013-01-16 04:07:00,
2013-01-15 20:08:00,38.6,32.3,30.46,ENE,57,1.0,3.0,78,0.00,,,0.00,Wunderground v.1.15,2013-01-16 04:08:00,
2013-01-15 20:11:00,38.3,32.0,30.46,ENE,57,0.0,2.0,78,0.00,,,0.00,Wunderground v.1.15,2013-01-16 04:11:00,
2013-01-15 20:12:00,38.3,32.4,30.46,ENE,57,0.0,2.0,79,0.00,,,0.00,Wunderground v.1.15,2013-01-16 04:12:00,
2013-01-15 20:15:00,38.1,32.2,30.45,ENE,57,1.0,2.0,79,0.00,,,0.00,Wunderground v.1.15,2013-01-16 04:15:00,
2013-01-15 20:16:00,38.0,32.1,30.45,ENE,57,0.0,2.0,79,0.00,,,0.00,Wunderground v.1.15,2013-01-16 04:16:00,
2013-01-15 20:19:00,37.9,32.3,30.45,ENE,57,1.0,2.0,80,0.00,,,0.00,Wunderground v.1.15,2013-01-16 04:19:00,
2013-01-15 20:21:00,37.9,32.3,30.45,ENE,57,1.0,3.0,80,0.00,,,0.00,Wunderground v.1.15,2013-01-16 04:21:00,
2013-01-15 20:23:00,37.9,32.3,30.45,ENE,57,1.0,3.0,80,0.00,,,0.00,Wunderground v.1.15,2013-01-16 04:23:00,
2013-01-15 20:25:00,37.9,32.3,30.45,ENE,57,1.0,3.0,80,0.00,,,0.00,Wunderground v.1.15,2013-01-16 04:25:00,
2013-01-15 20:27:00,37.9,32.3,30.45,ENE,57,2.0,3.0,80,0.00,,,0.00,Wunderground v.1.15,2013-01-16 04:27:00,
2013-01-15 20:30:00,37.9,32.3,30.45,NE,53,2.0,3.0,80,0.00,,,0.00,Wunderground v.1.15,2013-01-16 04:30:00,
2013-01-15 20:31:00,38.0,32.4,30.45,NE,52,2.0,3.0,80,0.00,,,0.00,Wunderground v.1.15,2013-01-16 04:31:00,
2013-01-15 20:35:00,38.2,32.6,30.45,NE,48,3.0,4.0,80,0.00,,,0.00,Wunderground v.1.15,2013-01-16 04:35:00,
2013-01-15 20:40:00,38.2,32.6,30.45,NE,46,3.0,3.0,80,0.00,,,0.00,Wunderground v.1.15,2013-01-16 04:40:00,
2013-01-15 20:42:00,38.2,32.6,30.45,NE,46,3.0,3.0,80,0.00,,,0.00,Wunderground v.1.15,2013-01-16 04:42:00,
2013-01-15 20:48:00,37.9,32.3,30.45,NE,45,2.0,3.0,80,0.00,,,0.00,Wunderground v.1.15,2013-01-16 04:48:00,
2013-01-15 20:49:00,37.9,32.6,30.45,NE,46,2.0,3.0,81,0.00,,,0.00,Wunderground v.1.15,2013-01-16 04:49:00,
2013-01-15 20:50:00,37.9,32.6,30.45,NE,46,1.0,1.0,81,0.00,,,0.00,Wunderground v.1.15,2013-01-16 04:50:00,
2013-01-15 20:55:00,37.8,32.5,30.45,NE,46,1.0,2.0,81,0.00,,,0.00,Wunderground v.1.15,2013-01-16 04:55:00,
2013-01-15 20:56:00,37.8,32.5,30.45,NE,46,1.0,2.0,81,0.00,,,0.00,Wunderground v.1.15,2013-01-16 04:56:00,
2013-01-15 20:58:00,37.8,32.5,30.45,NE,46,1.0,2.0,81,0.00,,,0.00,Wunderground v.1.15,2013-01-16 04:58:00,
2013-01-15 21:00:00,37.7,32.4,30.45,NE,46,0.0,2.0,81,0.00,,,0.00,Wunderground v.1.15,2013-01-16 05:00:00,
2013-01-15 21:02:00,37.7,32.4,30.45,NE,45,0.0,2.0,81,0.00,,,0.00,Wunderground v.1.15,2013-01-16 05:02:00,
2013-01-15 21:04:00,37.6,32.3,30.45,NE,46,0.0,2.0,81,0.00,,,0.00,Wunderground v.1.15,2013-01-16 05:04:00,
2013-01-15 21:09:00,37.3,32.0,30.45,NE,46,0.0,2.0,81,0.00,,,0.00,Wunderground v.1.15,2013-01-16 05:09:00,
2013-01-15 21:10:00,37.2,31.9,30.45,NE,46,0.0,2.0,81,0.00,,,0.00,Wunderground v.1.15,2013-01-16 05:10:00,
2013-01-15 21:11:00,37.1,31.8,30.45,NE,46,0.0,2.0,81,0.00,,,0.00,Wunderground v.1.15,2013-01-16 05:11:00,
2013-01-15 21:16:00,36.7,31.7,30.45,NE,46,0.0,2.0,82,0.00,,,0.00,Wunderground v.1.15,2013-01-16 05:16:00,
2013-01-15 21:17:00,36.6,31.3,30.45,NE,46,0.0,2.0,81,0.00,,,0.00,Wunderground v.1.15,2013-01-16 05:17:00,
2013-01-15 21:21:00,35.9,31.2,30.45,NE,46,1.0,2.0,83,0.00,,,0.00,Wunderground v.1.15,2013-01-16 05:21:00,
2013-01-15 21:22:00,35.8,31.1,30.45,NE,46,1.0,2.0,83,0.00,,,0.00,Wunderground v.1.15,2013-01-16 05:22:00,
2013-01-15 21:26:00,35.7,31.3,30.45,NE,46,1.0,2.0,84,0.00,,,0.00,Wunderground v.1.15,2013-01-16 05:26:00,
2013-01-15 21:27:00,35.7,31.3,30.45,NE,46,0.0,2.0,84,0.00,,,0.00,Wunderground v.1.15,2013-01-16 05:27:00,
2013-01-15 21:28:00,35.7,31.3,30.45,NE,46,0.0,2.0,84,0.00,,,0.00,Wunderground v.1.15,2013-01-16 05:28:00,
2013-01-15 21:33:00,35.9,31.8,30.45,NE,46,0.0,2.0,85,0.00,,,0.00,Wunderground v.1.15,2013-01-16 05:33:00,
2013-01-15 21:34:00,36.0,31.9,30.45,NE,45,0.0,2.0,85,0.00,,,0.00,Wunderground v.1.15,2013-01-16 05:34:00,
2013-01-15 21:36:00,36.0,31.6,30.45,NE,46,0.0,2.0,84,0.00,,,0.00,Wunderground v.1.15,2013-01-16 05:36:00,
2013-01-15 21:39:00,35.9,31.5,30.45,NE,46,0.0,2.0,84,0.00,,,0.00,Wunderground v.1.15,2013-01-16 05:39:00,
2013-01-15 21:41:00,35.8,31.1,30.45,NE,46,0.0,2.0,83,0.00,,,0.00,Wunderground v.1.15,2013-01-16 05:41:00,
2013-01-15 21:45:00,35.3,30.7,30.45,NE,45,0.0,2.0,83,0.00,,,0.00,Wunderground v.1.15,2013-01-16 05:45:00,
2013-01-15 21:47:00,35.2,30.6,30.45,NE,46,0.0,2.0,83,0.00,,,0.00,Wunderground v.1.15,2013-01-16 05:47:00,
2013-01-15 21:48:00,35.0,30.4,30.45,NE,46,0.0,2.0,83,0.00,,,0.00,Wunderground v.1.15,2013-01-16 05:48:00,
2013-01-15 21:53:00,34.5,29.9,30.45,NE,45,0.0,2.0,83,0.00,,,0.00,Wunderground v.1.15,2013-01-16 05:53:00,
2013-01-15 21:54:00,34.4,30.1,30.45,NE,46,0.0,2.0,84,0.00,,,0.00,Wunderground v.1.15,2013-01-16 05:54:00,
2013-01-15 21:58:00,34.4,30.4,30.45,NE,46,0.0,2.0,85,0.00,,,0.00,Wunderground v.1.15,2013-01-16 05:58:00,
2013-01-15 22:02:00,34.4,30.4,30.45,NE,46,0.0,2.0,85,0.00,,,0.00,Wunderground v.1.15,2013-01-16 06:02:00,
2013-01-15 22:03:00,34.4,30.4,30.45,NE,46,0.0,2.0,85,0.00,,,0.00,Wunderground v.1.15,2013-01-16 06:03:00,
2013-01-15 22:04:00,34.3,30.3,30.45,NE,46,0.0,2.0,85,0.00,,,0.00,Wunderground v.1.15,2013-01-16 06:04:00,
2013-01-15 22:07:00,34.3,30.5,30.45,NE,46,0.0,2.0,86,0.00,,,0.00,Wunderground v.1.15,2013-01-16 06:07:00,
2013-01-15 22:10:00,34.3,30.5,30.45,NE,46,0.0,2.0,86,0.00,,,0.00,Wunderground v.1.15,2013-01-16 06:10:00,
2013-01-15 22:13:00,34.2,30.4,30.45,NE,46,0.0,2.0,86,0.00,,,0.00,Wunderground v.1.15,2013-01-16 06:13:00,
2013-01-15 22:16:00,34.1,30.6,30.45,NE,46,0.0,2.0,87,0.00,,,0.00,Wunderground v.1.15,2013-01-16 06:16:00,
2013-01-15 22:17:00,34.0,30.5,30.45,NE,46,0.0,2.0,87,0.00,,,0.00,Wunderground v.1.15,2013-01-16 06:17:00,
2013-01-15 22:22:00,33.8,30.3,30.45,NE,46,1.0,2.0,87,0.00,,,0.00,Wunderground v.1.15,2013-01-16 06:22:00,
2013-01-15 22:24:00,33.7,30.2,30.46,NE,46,1.0,2.0,87,0.00,,,0.00,Wunderground v.1.15,2013-01-16 06:24:00,
2013-01-15 22:27:00,33.5,30.0,30.45,NE,46,2.0,2.0,87,0.00,,,0.00,Wunderground v.1.15,2013-01-16 06:27:00,
2013-01-15 22:31:00,33.6,30.4,30.45,NE,46,2.0,2.0,88,0.00,,,0.00,Wunderground v.1.15,2013-01-16 06:31:00,
2013-01-15 22:32:00,33.7,30.5,30.46,NE,46,2.0,2.0,88,0.00,,,0.00,Wunderground v.1.15,2013-01-16 06:32:00,
2013-01-15 22:35:00,33.8,30.6,30.46,NE,45,2.0,2.0,88,0.00,,,0.00,Wunderground v.1.15,2013-01-16 06:35:00,
2013-01-15 22:39:00,33.7,30.2,30.45,NE,46,2.0,2.0,87,0.00,,,0.00,Wunderground v.1.15,2013-01-16 06:39:00,
2013-01-15 22:40:00,33.7,30.5,30.45,NE,46,2.0,2.0,88,0.00,,,0.00,Wunderground v.1.15,2013-01-16 06:40:00,
2013-01-15 22:41:00,33.6,30.4,30.45,NE,46,2.0,2.0,88,0.00,,,0.00,Wunderground v.1.15,2013-01-16 06:41:00,
2013-01-15 22:44:00,33.4,29.9,30.45,NE,46,1.0,2.0,87,0.00,,,0.00,Wunderground v.1.15,2013-01-16 06:44:00,
2013-01-15 22:46:00,33.3,29.8,30.45,NE,45,1.0,2.0,87,0.00,,,0.00,Wunderground v.1.15,2013-01-16 06:46:00,
2013-01-15 22:50:00,33.1,29.7,30.45,NE,45,0.0,2.0,87,0.00,,,0.00,Wunderground v.1.15,2013-01-16 06:50:00,
2013-01-15 22:52:00,33.0,29.6,30.46,NE,46,0.0,2.0,87,0.00,,,0.00,Wunderground v.1.15,2013-01-16 06:52:00,
2013-01-15 22:55:00,33.0,29.8,30.46,NE,46,0.0,2.0,88,0.00,,,0.00,Wunderground v.1.15,2013-01-16 06:55:00,
2013-01-15 22:56:00,33.0,29.8,30.46,NE,46,0.0,2.0,88,0.00,,,0.00,Wunderground v.1.15,2013-01-16 06:56:00,
2013-01-15 22:58:00,32.9,29.7,30.46,NE,46,0.0,2.0,88,0.00,,,0.00,Wunderground v.1.15,2013-01-16 06:58:00,
2013-01-15 23:00:00,32.9,29.7,30.46,NE,46,0.0,3.0,88,0.00,,,0.00,Wunderground v.1.15,2013-01-16 07:00:00,
2013-01-15 23:01:00,32.9,29.7,30.46,NE,46,0.0,3.0,88,0.00,,,0.00,Wunderground v.1.15,2013-01-16 07:01:00,
2013-01-15 23:04:00,32.9,29.7,30.46,NE,46,0.0,3.0,88,0.00,,,0.00,Wunderground v.1.15,2013-01-16 07:04:00,
2013-01-15 23:06:00,32.8,29.6,30.46,NE,46,0.0,3.0,88,0.00,,,0.00,Wunderground v.1.15,2013-01-16 07:06:00,
2013-01-15 23:07:00,32.8,29.6,30.46,NE,46,0.0,3.0,88,0.00,,,0.00,Wunderground v.1.15,2013-01-16 07:07:00,
2013-01-15 23:10:00,32.7,29.5,30.46,NE,46,0.0,3.0,88,0.00,,,0.00,Wunderground v.1.15,2013-01-16 07:10:00,
2013-01-15 23:11:00,32.7,29.5,30.46,NE,46,0.0,3.0,88,0.00,,,0.00,Wunderground v.1.15,2013-01-16 07:11:00,
2013-01-15 23:12:00,32.6,29.4,30.46,NE,46,0.0,3.0,88,0.00,,,0.00,Wunderground v.1.15,2013-01-16 07:12:00,
2013-01-15 23:14:00,32.6,29.4,30.46,NE,45,0.0,3.0,88,0.00,,,0.00,Wunderground v.1.15,2013-01-16 07:14:00,
2013-01-15 23:17:00,32.5,29.3,30.46,NE,45,0.0,3.0,88,0.00,,,0.00,Wunderground v.1.15,2013-01-16 07:17:00,
2013-01-15 23:19:00,32.5,29.3,30.46,NE,46,0.0,3.0,88,0.00,,,0.00,Wunderground v.1.15,2013-01-16 07:19:00,
2013-01-15 23:20:00,32.6,29.7,30.46,NE,46,0.0,3.0,89,0.00,,,0.00,Wunderground v.1.15,2013-01-16 07:20:00,
2013-01-15 23:25:00,32.6,29.7,30.46,NE,46,0.0,3.0,89,0.00,,,0.00,Wunderground v.1.15,2013-01-16 07:25:00,
2013-01-15 23:27:00,32.5,29.6,30.46,NE,46,0.0,3.0,89,0.00,,,0.00,Wunderground v.1.15,2013-01-16 07:27:00,
2013-01-15 23:32:00,32.5,29.6,30.46,NE,46,0.0,3.0,89,0.00,,,0.00,Wunderground v.1.15,2013-01-16 07:32:00,
2013-01-15 23:33:00,32.4,29.5,30.46,NE,46,0.0,3.0,89,0.00,,,0.00,Wunderground v.1.15,2013-01-16 07:33:00,
2013-01-15 23:39:00,32.4,29.5,30.46,NE,45,0.0,3.0,89,0.00,,,0.00,Wunderground v.1.15,2013-01-16 07:39:00,
2013-01-15 23:40:00,32.4,29.5,30.46,NE,46,0.0,3.0,89,0.00,,,0.00,Wunderground v.1.15,2013-01-16 07:40:00,
2013-01-15 23:46:00,32.5,29.6,30.46,NE,46,0.0,3.0,89,0.00,,,0.00,Wunderground v.1.15,2013-01-16 07:46:00,
2013-01-15 23:47:00,32.4,29.5,30.46,NE,46,0.0,3.0,89,0.00,,,0.00,Wunderground v.1.15,2013-01-16 07:47:00,
2013-01-15 23:53:00,32.2,29.3,30.46,NE,46,1.0,3.0,89,0.00,,,0.00,Wunderground v.1.15,2013-01-16 07:53:00,
2013-01-15 23:57:00,32.3,29.4,30.46,NE,45,1.0,3.0,89,0.00,,,0.00,Wunderground v.1.15,2013-01-16 07:57:00,